GFSSGP_850_rhum_015.txt.gz
RH
2 3 14 17 24 24 21 21 26 29 24 30 36 45 51 48 52 75 78 68 69 72 71 67 73 73 72 75 78 72 70 71 70 63 52 47 38 32 33 35 38 38 37 34 32 31 32 32 33
2 14 15 16 25 27 25 27 29 22 22 30 33 39 45 50 52 76 77 74 67 70 70 70 70 70 75 75 64 55 60 62 57 49 40 36 35 35 36 38 38 36 32 25 20 18 21 27 33
5 16 16 21 22 24 32 27 23 19 20 26 33 36 41 46 47 67 70 62 70 73 64 63 64 68 58 46 45 48 50 52 43 38 36 34 35 36 34 36 35 22 12 13 16 16 17 19 20
14 16 13 16 17 16 29 25 21 22 24 30 33 44 42 47 57 70 72 70 70 66 58 51 33 25 23 24 28 31 33 35 36 37 37 36 36 33 31 37 32 16 15 17 17 17 17 17 17
15 17 18 18 19 26 21 20 23 27 27 41 41 43 43 46 52 61 61 59 37 29 19 20 22 23 24 25 27 30 34 36 37 37 38 37 34 28 35 38 31 22 18 18 19 18 17 17 16
17 12 19 20 25 22 20 20 20 27 21 41 44 41 39 40 43 48 48 43 16 19 22 22 22 21 21 22 22 24 28 33 34 35 39 35 33 36 39 38 28 22 19 21 22 23 24 22 20
18 21 21 17 20 24 17 13 16 25 21 40 42 43 38 37 37 39 41 36 26 25 23 22 23 24 16 10 12 14 21 22 28 35 33 60 67 68 69 52 49 44 43 40 35 37 40 35 36
14 16 15 14 19 17 12 9 14 14 14 27 34 44 46 36 35 36 38 48 48 45 50 56 44 56 50 22 13 14 19 28 54 55 75 76 68 67 68 78 73 71 58 59 61 52 60 60 60
14 13 14 12 14 13 9 8 8 14 18 26 25 39 42 36 35 35 41 48 55 57 57 58 55 50 55 52 55 51 51 48 51 62 77 76 73 73 74 78 73 70 61 65 59 56 63 66 64
10 15 10 7 9 9 7 6 7 13 15 38 40 42 43 39 37 36 39 43 55 56 58 59 52 47 53 54 62 63 64 68 73 72 67 75 73 80 76 74 70 65 63 60 56 57 59 66 64
8 11 7 6 6 6 6 7 8 13 16 28 46 44 42 42 39 38 36 43 46 51 57 52 33 54 59 50 61 64 64 60 75 83 64 60 73 74 71 56 46 44 52 56 58 58 55 60 64
9 7 6 6 6 5 6 5 5 8 10 16 36 43 45 43 42 39 37 39 45 52 56 56 39 33 55 61 59 62 62 60 73 65 56 33 46 45 34 38 41 48 56 55 54 51 47 55 59
8 7 6 6 6 8 7 7 8 9 10 14 22 39 39 39 40 39 37 36 41 50 55 58 45 20 34 62 60 61 58 64 54 54 48 27 28 34 31 32 35 39 44 50 49 47 45 55 60
7 6 6 5 8 8 9 9 9 9 9 16 24 35 34 35 37 38 38 38 39 48 49 54 54 46 23 41 47 41 45 49 54 53 44 39 32 32 33 34 34 37 41 47 48 49 46 57 62
8 11 10 10 10 11 10 12 12 10 8 11 20 28 29 33 36 36 34 37 37 43 51 58 64 64 58 37 35 42 53 47 53 53 52 49 48 50 45 45 44 44 43 40 39 36 40 52 52
10 12 17 13 13 11 12 18 13 9 9 10 11 12 23 28 32 33 30 32 37 40 49 59 53 48 59 62 45 47 51 49 53 55 52 56 57 55 51 49 40 39 39 40 43 41 48 55 63
14 19 19 16 12 16 15 18 13 10 10 10 10 10 11 19 25 29 30 31 36 37 41 54 59 62 64 61 52 52 51 48 47 46 47 53 53 50 50 50 47 54 47 43 44 40 47 54 49
19 18 20 20 13 11 11 13 16 13 12 13 12 13 11 26 34 34 35 38 38 41 42 59 65 64 55 54 53 52 50 48 49 49 50 51 51 50 52 50 56 55 51 45 39 39 38 33 30
14 15 22 18 14 14 14 16 19 18 16 18 30 31 37 39 39 40 48 43 46 58 68 72 66 53 53 55 53 50 46 45 50 52 52 52 51 51 53 54 56 50 47 48 47 40 35 20 22
14 20 26 19 15 14 15 17 22 21 23 25 31 37 39 43 44 46 48 53 55 52 52 55 55 51 45 45 45 46 46 47 47 48 52 52 56 59 62 63 51 50 50 48 44 48 40 52 60
24 29 27 24 20 17 18 23 25 23 23 25 28 32 33 37 42 43 49 51 50 50 50 49 49 49 47 45 47 47 45 44 48 49 54 64 64 61 56 53 52 50 46 52 52 42 58 77 74
33 28 26 24 26 31 20 38 28 27 30 30 32 31 35 42 46 48 46 43 44 49 50 50 46 44 46 45 45 48 56 60 64 68 63 56 54 57 56 55 51 39 41 43 42 70 85 82 79
30 23 26 25 31 30 28 38 30 29 36 35 32 31 34 37 41 46 46 46 50 49 48 47 52 52 54 53 54 62 65 59 60 63 64 64 64 63 61 52 36 44 69 79 82 82 80 79 76
22 29 32 31 37 60 37 37 50 42 35 36 34 33 35 37 38 40 43 47 47 50 51 52 54 57 57 58 61 60 61 64 67 67 68 68 67 60 49 51 58 72 82 83 85 83 70 70 74
27 42 71 71 77 73 47 40 50 38 30 33 40 38 38 38 40 42 46 50 50 50 52 55 56 55 57 56 63 66 67 70 72 73 72 72 56 54 63 64 64 70 78 84 83 82 76 81 91
34 38 75 64 82 68 28 45 46 34 30 32 33 33 36 37 38 39 38 40 44 48 49 50 52 56 61 63 62 67 71 71 73 73 69 59 58 71 77 79 65 77 89 87 89 94 96 94 84
34 42 25 60 61 79 46 41 34 31 31 29 28 32 37 38 39 39 42 42 45 48 52 54 57 60 63 65 67 69 70 70 68 64 67 68 74 76 78 52 77 89 77 78 77 78 78 77 79
29 24 55 66 63 54 42 51 61 42 48 38 29 32 33 38 43 44 47 50 51 54 56 58 60 61 65 70 69 68 66 65 64 67 68 70 70 66 47 52 68 80 80 81 75 73 69 68 67
38 40 39 40 64 74 78 50 33 44 45 42 36 36 41 43 45 46 49 51 52 54 58 61 64 67 67 64 65 65 66 63 62 60 62 64 52 41 63 71 70 63 56 54 54 54 55 59 62
25 34 41 75 57 79 82 60 30 44 37 37 39 42 42 42 44 47 49 53 58 56 60 58 56 55 58 57 60 65 64 62 59 58 62 58 48 66 68 65 63 56 53 54 56 57 57 58 62

GFSSGP_850_rhum_021.txt.gz
RH
5 3 9 17 21 25 26 21 34 41 54 52 49 52 72 86 73 83 93 83 79 74 76 74 66 62 61 63 62 59 54 46 35 28 26 27 27 26 20 22 22 16 12 13 14 15 17 17 16
3 9 12 17 25 27 35 33 47 44 48 44 47 59 69 91 98 91 98 86 77 69 72 70 66 64 67 65 55 49 38 32 29 28 28 27 26 20 15 21 17 10 12 12 13 14 15 16 16
6 15 14 23 30 29 34 33 43 44 41 40 44 46 68 97 93 84 84 82 80 79 76 71 70 70 68 52 48 37 35 32 30 28 27 26 24 13 18 22 18 14 14 16 16 16 16 16 16
14 14 14 18 21 20 27 34 38 42 41 42 44 55 68 81 84 80 84 86 85 82 80 73 72 67 46 39 37 33 31 29 28 26 25 27 16 18 24 23 20 18 19 20 21 22 25 23 24
22 16 20 20 22 24 28 35 37 41 43 43 45 53 78 77 76 74 76 85 80 83 76 73 56 32 29 28 28 28 27 24 22 25 26 18 20 23 28 35 37 38 37 40 39 38 38 37 43
16 14 20 44 41 32 31 34 43 44 44 51 57 61 87 79 75 80 77 75 76 67 62 36 28 25 24 23 23 22 20 16 20 23 23 39 41 44 45 44 39 34 40 37 33 38 47 54 50
18 20 20 25 48 29 31 24 43 42 44 44 52 56 98 85 72 62 72 70 57 30 25 24 20 16 13 13 14 15 13 14 17 29 42 41 47 47 43 44 39 36 41 38 35 33 34 37 40
16 18 20 18 47 43 21 21 41 44 46 42 44 62 91 86 55 45 33 25 26 24 23 21 17 9 8 8 10 12 17 24 34 39 46 49 56 53 43 42 46 45 48 45 40 37 37 34 34
16 20 20 34 39 48 28 20 34 41 40 42 40 57 69 49 30 23 25 26 29 35 35 33 32 37 28 29 36 36 39 41 42 48 52 58 58 50 48 47 43 43 44 45 41 46 46 42 42
17 21 17 14 27 40 23 30 39 43 47 45 41 50 54 40 37 29 26 30 44 45 44 33 36 41 46 51 52 53 48 46 57 56 39 41 51 53 45 44 41 45 50 52 52 56 57 55 47
15 14 9 8 12 13 14 23 30 48 51 40 40 50 46 45 41 36 29 30 36 44 51 44 41 53 59 57 52 48 42 50 52 49 36 36 42 43 42 38 42 49 52 53 56 59 61 57 48
12 9 8 8 10 8 10 12 33 22 37 31 31 38 43 43 40 36 34 40 48 48 50 49 32 47 53 59 51 54 56 53 41 50 40 27 32 32 36 39 44 51 54 56 57 51 49 47 41
9 8 9 7 7 7 8 7 10 14 31 35 34 38 38 38 36 35 30 35 44 50 54 55 38 44 40 54 51 48 53 57 54 48 43 35 33 39 40 40 41 45 48 45 43 42 41 43 45
8 7 8 9 8 7 10 11 11 19 36 37 38 37 37 36 36 35 38 42 49 52 56 58 43 51 50 54 58 59 60 61 49 51 51 52 51 43 41 44 45 45 40 38 40 42 45 48 50
7 10 9 10 10 11 11 13 14 26 42 39 39 38 37 37 36 35 40 42 47 53 57 61 51 60 58 62 64 63 65 54 46 50 54 55 56 54 58 58 54 49 44 44 51 53 52 54 49
14 16 16 13 12 13 10 14 13 30 44 45 43 44 45 44 42 39 38 40 48 55 62 68 62 59 63 65 67 62 55 50 55 57 56 58 63 67 65 61 58 53 51 54 56 57 53 46 39
21 18 17 16 14 13 13 16 15 27 46 50 55 52 51 50 49 48 46 45 42 55 64 76 60 70 72 71 58 60 59 54 55 59 62 65 68 63 58 54 52 54 57 55 51 45 47 47 36
17 17 20 19 16 17 17 19 28 17 33 32 44 46 46 47 47 45 45 44 47 47 67 80 82 78 77 75 69 61 58 57 58 59 62 63 58 54 53 55 57 53 48 46 46 48 48 45 37
16 22 22 20 16 21 30 42 46 52 47 65 67 68 70 64 63 52 48 52 57 71 63 89 80 74 79 76 69 62 58 60 58 56 54 53 54 57 59 50 51 50 50 55 54 53 49 39 23
24 24 23 21 22 28 38 45 49 53 64 68 68 69 78 82 81 80 77 79 80 70 66 53 59 73 76 72 57 62 65 57 53 52 54 57 54 51 49 57 59 58 61 62 58 46 24 21 37
35 29 27 24 24 28 34 43 45 42 53 62 64 62 60 59 64 64 60 58 55 56 54 52 49 51 54 54 53 50 49 48 45 47 51 56 59 59 64 66 66 63 52 35 19 15 21 34 41
33 29 26 25 26 42 27 59 37 46 55 58 65 62 57 57 49 49 50 49 45 44 41 41 42 44 42 42 43 43 46 47 52 56 59 62 63 66 69 72 81 46 25 23 19 25 40 56 68
32 28 26 27 35 36 33 52 45 50 59 60 64 60 55 46 43 44 45 45 46 47 48 49 51 53 55 57 58 59 60 60 61 62 65 69 71 74 63 63 49 38 37 27 28 51 76 90 94
23 35 45 51 49 60 41 48 56 57 55 56 57 57 51 45 45 48 49 51 54 54 55 55 57 59 60 60 61 63 64 67 70 73 72 64 57 50 49 50 49 51 32 25 36 54 62 74 82
35 47 68 69 74 69 48 55 54 44 45 50 55 55 50 51 54 57 57 56 54 56 59 60 60 57 59 64 67 68 70 70 56 47 52 59 58 56 54 57 64 43 26 30 46 58 62 62 62
36 44 74 57 72 63 48 62 54 45 41 44 47 52 54 56 55 54 56 56 59 58 55 56 56 58 60 61 64 66 56 53 50 54 60 61 64 65 68 76 55 45 48 52 54 60 59 57 56
34 45 40 70 71 76 64 46 45 49 51 47 47 46 47 49 53 53 57 56 54 52 51 51 55 57 58 59 58 52 50 50 55 64 65 66 67 71 77 78 62 88 76 71 64 54 53 55 55
30 34 52 68 57 56 55 58 65 52 53 50 54 56 57 55 55 54 52 52 51 52 48 42 37 39 44 47 48 50 58 67 68 65 66 66 69 76 75 72 88 79 69 63 53 53 52 46 43
39 42 51 56 70 71 76 66 43 52 52 56 61 59 58 58 58 56 57 59 52 44 37 40 44 47 45 45 44 51 67 58 45 46 69 71 77 83 86 88 83 74 64 56 52 52 46 46 55
31 39 46 68 51 83 80 60 40 54 49 53 53 53 56 57 61 61 56 47 38 41 46 49 46 42 43 42 41 43 49 37 29 61 87 89 71 73 76 82 92 84 61 53 52 50 51 56 64

GFSSGP_850_rhum_024.txt.gz
RH
4 4 16 17 20 24 23 21 36 44 58 57 62 63 82 96 72 77 97 80 84 85 86 87 79 69 63 63 60 54 52 37 29 27 27 26 23 17 20 15 11 12 11 11 12 13 14 14 14
3 15 16 18 25 24 37 25 51 58 56 55 57 66 68 94 99 96 96 82 85 86 88 86 78 68 66 59 48 45 37 29 28 28 26 25 16 19 20 14 12 13 14 15 15 16 16 15 15
6 17 15 26 31 26 30 43 50 49 44 44 46 55 72 97 99 98 96 79 82 85 86 83 77 70 64 48 42 33 28 27 27 24 26 20 14 20 21 18 17 17 18 18 20 22 24 23 24
11 17 14 21 21 22 26 47 44 44 46 49 40 57 71 78 90 82 82 78 82 83 84 82 77 69 52 38 29 28 27 26 22 24 23 13 15 20 21 22 26 32 35 38 37 36 36 38 41
20 16 22 23 27 27 24 39 42 44 45 51 42 58 74 88 86 77 77 87 85 86 86 80 78 50 29 28 29 28 24 21 23 24 17 21 26 32 35 36 31 35 32 31 37 46 49 50 39
17 15 23 54 44 33 38 39 44 47 45 43 60 71 90 83 80 81 86 89 87 82 80 76 40 28 29 28 27 23 18 19 22 25 37 39 40 36 32 28 30 31 28 28 30 31 33 31 30
18 20 20 44 44 34 31 38 44 54 48 53 62 83 99 82 80 78 82 88 83 78 59 28 28 27 26 22 20 17 17 22 29 44 44 47 43 36 34 34 34 34 32 30 32 33 33 31 29
17 20 20 28 47 50 32 36 47 46 47 53 57 94 96 78 76 80 82 82 76 42 27 24 18 12 9 10 14 14 18 27 41 44 43 48 43 39 40 37 39 40 40 39 40 42 43 41 40
16 22 22 41 47 45 31 24 42 41 45 45 43 68 68 74 71 81 83 60 33 25 22 18 11 9 10 11 14 21 31 43 45 42 44 48 44 47 48 40 40 41 44 46 51 54 52 49 43
20 24 19 28 38 40 28 27 38 43 46 45 50 70 72 56 52 40 34 26 24 27 31 32 32 25 26 30 31 34 33 38 36 37 41 45 48 47 44 40 40 43 47 51 55 55 55 49 45
18 20 14 17 32 31 31 30 37 47 49 44 58 71 67 49 38 23 25 22 23 35 36 30 39 43 44 39 35 36 38 45 47 43 37 40 47 49 48 39 41 46 47 48 49 50 44 40 41
14 13 9 9 27 29 20 24 44 38 33 33 36 45 48 35 29 26 24 24 33 44 43 36 42 48 54 55 49 47 47 51 51 56 46 36 42 48 45 39 42 49 52 51 46 41 43 44 44
14 9 10 8 10 19 18 17 38 25 34 35 43 47 43 38 36 31 25 22 38 46 50 43 38 51 58 63 63 61 62 61 59 61 52 44 38 45 40 40 45 53 54 47 43 46 53 54 53
11 8 9 10 8 9 9 11 13 19 38 38 40 43 43 42 38 37 35 32 42 50 56 56 43 56 63 66 67 67 67 68 69 64 56 54 52 53 47 48 55 55 46 44 47 51 54 52 47
8 9 11 12 10 13 11 13 13 28 39 38 40 41 47 50 44 41 38 35 41 52 57 62 54 66 68 67 69 69 70 70 68 72 63 59 59 60 63 66 63 59 56 53 54 54 46 43 40
14 16 14 12 12 14 10 14 14 41 38 44 45 48 49 50 49 44 40 41 45 55 59 65 64 70 71 74 76 75 74 64 65 72 66 64 64 67 70 66 60 55 56 54 46 45 45 44 42
21 20 17 15 14 14 12 16 29 49 50 53 49 48 48 46 46 44 41 42 48 55 62 69 71 73 82 71 72 82 66 59 64 69 65 66 70 68 63 58 59 58 52 52 52 53 53 52 51
17 19 20 17 16 22 24 48 54 35 54 57 58 56 54 53 52 51 50 48 48 48 67 78 80 75 87 98 91 77 71 61 58 60 62 64 63 64 59 63 56 53 59 60 61 61 59 56 48
18 20 20 21 18 44 57 65 69 69 62 70 69 64 60 58 60 60 62 62 58 76 85 90 77 93 95 84 78 66 62 65 66 56 55 55 56 58 56 54 54 62 64 65 69 57 40 24 13
25 26 24 24 28 44 54 58 61 66 76 76 79 81 77 77 85 85 89 93 92 92 90 72 78 90 76 73 67 63 58 47 44 44 47 49 52 55 57 59 64 69 70 68 42 19 13 14 20
34 28 27 27 31 37 43 52 58 55 69 73 82 84 82 72 70 80 80 71 63 54 52 50 57 61 58 51 44 41 43 43 44 49 53 56 58 61 65 70 67 52 50 40 28 18 15 22 26
31 30 27 28 34 42 34 58 50 58 68 69 70 72 63 61 70 66 52 42 44 43 42 42 44 44 45 48 49 51 53 56 56 56 61 64 68 71 65 45 42 45 46 46 26 19 23 36 64
33 32 32 33 40 37 39 59 52 63 69 70 71 62 61 61 54 46 45 46 45 45 47 48 51 52 54 55 57 59 60 63 65 65 68 70 52 57 57 55 56 59 63 39 30 34 48 58 66
29 40 48 54 52 58 45 47 55 69 64 67 66 65 60 54 50 51 48 51 50 52 52 54 57 59 61 60 62 65 67 70 73 60 49 54 54 53 59 62 57 57 65 40 33 32 36 40 48
42 48 70 68 74 71 50 53 48 49 55 59 63 63 63 55 57 52 52 55 58 59 60 60 61 58 59 62 66 68 67 58 50 48 53 55 60 60 63 68 72 76 58 54 80 51 52 50 52
38 46 73 58 78 67 50 61 54 49 43 48 53 58 59 59 58 57 60 64 61 60 60 57 55 50 50 52 55 52 46 52 62 66 69 67 68 69 72 76 80 78 75 80 77 59 47 45 46
38 48 44 71 71 78 67 50 51 58 60 56 54 54 56 57 60 64 65 62 58 56 54 49 42 37 39 42 46 52 56 65 69 69 63 56 65 71 75 74 78 76 84 73 66 62 51 53 50
31 40 51 69 54 51 61 60 69 63 64 62 59 55 57 60 63 62 60 57 55 53 48 40 35 39 42 36 40 43 43 50 60 42 34 33 70 77 75 70 74 80 82 82 74 66 55 53 51
41 45 55 59 70 70 77 69 54 58 56 59 59 58 61 62 60 60 59 58 54 47 41 36 35 35 35 37 40 41 50 45 35 29 26 43 56 48 46 73 91 93 82 95 84 70 57 55 58
34 40 45 63 47 84 79 61 44 54 52 50 57 60 61 60 60 59 58 53 42 43 36 32 36 37 40 41 41 39 36 32 29 37 42 46 48 40 63 83 82 91 95 75 71 62 61 61 66

GFSSGP_850_rhum_027.txt.gz
RH
11 4 16 21 16 17 18 17 34 50 60 69 68 58 67 84 75 77 98 81 80 77 88 92 84 75 70 69 67 60 48 28 24 25 25 20 17 16 12 11 12 13 13 14 14 14 13 14 14
5 7 18 19 18 17 22 28 50 59 67 56 59 64 66 76 92 96 100 87 75 80 89 87 83 72 71 68 61 45 26 26 25 24 22 14 18 16 14 14 15 16 17 18 19 19 19 21 21
4 15 18 19 22 17 31 48 51 54 56 46 57 64 71 73 69 96 94 94 85 81 86 82 78 73 71 61 44 26 26 27 25 24 16 17 20 19 18 18 20 25 32 34 34 32 31 31 34
7 18 15 16 18 18 28 45 56 72 64 44 44 61 72 79 75 74 88 93 88 85 82 78 76 75 65 50 28 28 28 24 25 22 16 22 22 22 28 35 36 34 31 32 37 39 38 33 28
17 17 17 26 33 27 19 45 45 45 64 55 46 55 89 79 80 98 88 90 86 82 82 79 81 75 56 35 30 30 24 23 24 17 22 27 34 40 35 35 30 29 28 29 30 29 30 29 29
20 17 22 40 39 36 42 47 48 53 47 48 56 69 89 93 88 84 85 84 81 79 83 88 85 57 39 32 31 25 18 22 21 32 36 42 37 29 32 33 29 28 29 30 31 30 30 29 27
19 17 31 39 38 35 38 50 48 46 47 52 63 77 99 100 93 85 83 83 84 86 87 86 54 40 35 32 27 20 23 24 41 40 42 38 33 31 30 31 31 29 28 30 32 32 32 32 32
18 17 22 41 47 42 34 45 35 37 46 58 60 77 95 100 94 84 86 85 85 85 84 46 37 35 33 29 22 20 25 42 43 44 40 38 36 36 33 32 31 30 31 33 34 34 36 37 37
18 18 18 41 54 38 34 33 44 42 47 48 50 77 77 77 83 88 90 90 86 77 38 32 24 22 20 18 20 27 34 52 50 48 49 43 42 38 35 35 36 36 39 43 45 47 47 42 39
19 19 17 27 34 45 47 32 43 45 49 47 63 76 70 73 80 82 88 82 55 31 23 15 12 12 14 18 24 32 50 52 50 49 56 56 49 45 44 42 45 46 49 51 51 51 44 42 46
21 18 16 26 29 25 31 34 39 48 47 44 70 74 70 66 72 68 58 29 22 23 28 24 22 18 24 30 42 48 54 55 51 52 54 56 55 56 50 43 47 48 53 55 52 43 42 47 50
16 16 12 24 27 28 28 31 48 42 37 38 44 56 66 51 38 28 21 23 26 34 37 41 41 45 49 51 59 53 60 66 67 64 57 52 60 61 55 47 48 50 50 52 45 43 46 52 52
17 13 10 9 23 31 26 30 40 39 27 36 48 62 54 43 26 21 25 27 33 45 41 46 56 61 64 68 71 72 74 78 79 75 66 56 57 62 52 50 48 49 52 47 44 48 54 51 46
14 10 11 10 15 22 18 17 29 30 37 37 46 50 50 42 31 26 26 27 39 49 52 50 57 64 67 71 74 74 65 69 85 77 76 68 57 62 57 54 57 57 54 55 55 54 47 46 45
9 11 12 13 12 13 12 14 16 30 41 48 66 65 54 42 37 33 29 29 42 52 60 59 60 64 67 71 77 69 61 72 75 75 68 69 60 63 66 68 67 63 57 58 54 50 51 55 52
14 16 13 13 14 14 11 15 28 56 48 55 63 61 53 49 48 41 38 41 50 56 63 68 71 76 78 80 65 63 74 77 74 69 68 69 66 70 71 67 59 59 61 56 55 57 58 61 55
20 16 18 15 18 14 14 21 41 53 49 55 57 56 55 56 55 52 51 51 52 58 67 75 80 72 82 75 58 85 88 84 79 74 73 71 72 68 67 63 62 62 56 58 64 65 65 54 43
19 19 19 18 20 26 34 49 54 53 56 64 62 58 54 51 51 50 50 48 50 52 58 74 88 80 91 75 75 91 80 76 66 68 69 61 61 61 60 59 58 58 63 68 69 60 42 28 18
18 19 19 22 26 45 59 59 61 69 67 71 73 64 61 59 56 56 56 57 59 65 76 80 80 79 68 82 87 78 64 65 66 47 49 55 55 59 60 61 65 68 67 53 42 37 31 21 15
24 25 27 31 33 43 51 58 62 65 72 73 73 73 64 67 75 69 68 67 71 72 86 87 80 76 74 71 69 68 62 47 48 48 50 54 58 61 64 68 66 50 38 38 40 41 38 27 18
32 29 29 30 36 38 40 45 59 63 73 80 83 78 83 87 92 87 86 84 83 80 74 72 73 73 59 60 64 50 48 49 52 53 55 60 64 67 67 62 51 44 48 48 49 49 40 35 44
37 30 29 30 29 31 34 27 49 66 72 75 82 91 99 98 87 78 78 61 56 52 44 46 51 52 56 61 55 54 54 57 60 64 68 68 67 58 45 53 47 48 51 53 56 54 43 33 66
37 33 32 31 33 33 34 32 47 65 74 71 73 79 85 86 72 62 53 45 42 44 46 48 49 52 53 54 56 59 61 65 68 68 71 58 46 42 40 44 51 56 62 66 64 62 68 40 46
39 38 42 45 42 38 41 36 38 64 60 63 64 71 76 75 58 51 48 45 43 45 47 50 54 56 58 61 61 64 68 69 69 58 46 46 46 56 62 61 64 69 70 71 72 76 68 57 50
36 39 49 52 56 50 48 49 35 40 49 54 60 64 65 58 52 49 49 50 48 50 53 55 60 62 59 56 59 61 58 47 40 39 44 59 67 64 69 70 72 76 77 75 75 78 69 54 53
40 40 58 52 62 54 46 52 39 46 43 54 56 61 58 55 52 54 56 56 54 56 59 63 62 53 47 40 38 30 24 36 51 61 65 61 47 43 58 74 78 80 78 76 83 72 66 56 53
40 40 43 61 69 59 46 45 40 51 50 57 59 65 63 55 55 58 60 60 63 66 65 58 48 37 31 27 26 35 48 56 60 58 40 32 28 38 66 72 72 61 80 81 90 77 76 64 57
34 39 45 50 52 45 42 51 42 56 53 54 58 60 62 57 60 64 66 67 66 62 54 43 37 33 31 33 38 43 47 54 44 35 30 27 31 35 40 39 52 71 85 86 92 90 84 66 59
40 44 52 48 54 45 51 33 45 45 49 53 53 57 56 58 62 65 68 65 60 52 42 42 39 35 33 36 43 43 42 37 32 28 28 34 40 42 38 41 61 76 86 90 92 84 68 66 61
36 40 43 49 46 65 58 40 38 47 49 52 54 56 55 57 63 67 66 61 53 45 44 43 38 34 33 45 40 38 33 30 27 30 44 50 51 43 40 52 70 85 89 89 87 73 72 66 65

GFSSGP_850_rhum_030.txt.gz
RH
17 7 6 20 15 12 16 16 23 42 50 53 53 48 48 58 54 70 97 98 98 96 96 83 79 75 72 68 68 67 51 32 26 27 23 16 16 11 10 11 12 13 14 15 15 16 17 18 16
10 4 18 15 12 14 14 13 28 46 48 50 50 50 48 62 86 98 97 97 99 94 80 90 82 78 72 70 68 54 33 28 28 24 16 16 14 13 14 15 17 18 21 23 25 27 28 28 28
5 10 14 11 10 12 15 28 39 41 45 55 55 60 63 68 96 97 96 97 91 99 98 94 78 78 74 69 56 36 30 28 26 19 18 19 17 17 19 24 32 33 32 31 32 32 28 25 25
13 14 13 12 12 12 24 35 37 40 39 43 66 54 62 62 77 62 92 82 91 99 100 80 80 77 73 61 40 33 30 27 25 18 21 20 20 25 34 34 29 28 29 31 28 25 26 24 23
17 13 12 13 13 12 23 38 40 38 53 39 41 62 71 77 61 56 78 88 93 96 100 79 83 80 67 45 36 32 27 28 20 22 23 28 37 36 35 29 29 30 28 26 24 23 25 27 27
11 12 12 15 22 22 22 38 36 36 36 43 42 42 85 86 74 83 99 95 99 98 99 84 86 76 57 43 37 30 30 27 23 27 37 41 34 36 33 30 28 29 30 29 30 30 31 32 34
11 10 14 23 29 34 31 38 34 29 31 41 43 51 97 99 97 99 95 99 98 99 97 91 84 69 55 44 35 29 31 28 36 42 44 38 36 35 34 32 30 31 31 31 33 34 35 35 36
13 11 22 25 27 35 37 34 31 31 32 48 54 49 96 98 99 98 100 91 91 88 94 92 96 91 68 39 31 29 30 48 48 51 47 42 40 37 36 35 35 36 36 37 37 39 38 37 40
16 12 18 29 29 38 39 36 36 38 43 49 56 58 74 89 97 99 100 98 90 87 90 86 93 94 87 74 29 34 44 54 57 59 54 52 85 73 63 36 36 40 43 44 44 42 38 40 50
13 13 12 15 23 26 29 32 34 41 42 45 61 84 97 97 95 98 96 90 86 89 71 88 93 63 36 60 33 52 66 85 90 88 73 92 65 64 42 39 41 44 48 48 46 43 40 48 56
13 13 12 21 27 29 29 37 35 34 38 38 43 99 97 99 96 89 89 88 88 91 90 77 30 26 31 63 73 79 90 93 82 68 79 74 68 66 80 58 65 48 49 62 53 49 44 44 48
14 12 12 25 26 21 27 33 34 31 30 35 45 82 86 90 94 91 91 78 76 74 72 26 21 23 30 69 77 78 93 91 93 86 68 70 88 64 62 72 55 55 57 51 46 54 49 52 51
14 11 11 17 24 17 23 26 26 31 35 42 60 76 75 68 73 70 62 59 59 59 65 38 32 39 48 60 64 64 78 88 85 82 78 68 76 61 61 54 56 56 55 53 60 64 59 58 59
13 10 9 10 18 26 23 26 29 30 41 54 63 63 56 50 46 49 51 50 55 62 73 52 54 60 65 67 73 74 73 76 81 77 79 72 70 62 63 60 60 61 60 60 58 58 56 64 64
10 10 9 9 13 20 22 21 19 35 42 49 51 50 50 49 46 42 43 45 54 66 74 57 59 63 69 73 67 52 50 53 59 69 76 74 72 69 69 68 67 66 59 58 58 57 67 67 65
9 9 10 11 12 14 18 17 23 43 40 47 50 54 57 54 47 44 47 46 54 66 86 59 59 66 73 80 65 75 82 57 80 79 76 82 72 71 72 70 64 59 62 60 68 74 74 65 62
11 12 11 13 14 13 15 14 27 45 39 37 46 48 49 54 58 68 63 49 56 73 81 66 68 66 84 84 64 64 74 73 84 76 77 72 70 73 68 66 62 60 66 75 70 68 62 58 58
14 14 9 11 15 11 15 22 25 42 37 38 41 45 48 54 65 66 61 64 73 87 77 70 72 76 74 65 72 81 86 81 76 71 70 75 71 65 61 61 61 62 72 67 54 53 60 56 54
10 12 13 15 26 18 17 24 29 40 40 42 44 49 52 55 75 53 51 55 81 87 96 96 73 84 77 73 77 83 73 64 68 70 55 54 58 59 62 69 67 66 64 52 48 58 57 53 61
12 13 20 22 24 24 26 30 33 38 42 42 43 46 50 63 75 76 70 94 92 96 98 96 89 88 76 73 74 76 66 72 70 56 54 58 62 63 65 66 64 59 62 71 59 63 61 52 57
20 18 22 20 26 25 25 30 34 40 48 54 55 50 56 66 76 89 96 100 100 100 100 100 98 92 67 66 64 66 70 57 56 56 61 63 65 68 57 50 51 56 46 57 72 71 69 64 59
21 22 20 23 20 19 23 19 32 38 42 47 53 57 65 77 82 88 93 96 92 92 94 90 88 75 68 63 75 75 63 64 74 72 75 75 66 54 57 39 32 39 57 72 69 65 77 69 64
25 23 20 20 20 22 23 21 30 42 44 48 56 66 73 74 74 75 73 72 71 52 60 84 78 72 49 54 62 68 74 74 75 74 72 76 77 63 61 57 48 54 76 75 84 80 81 71 68
26 25 25 24 24 28 20 24 15 32 33 45 56 64 69 67 64 58 56 58 59 67 72 57 59 54 54 59 64 72 70 72 66 64 58 50 54 60 69 82 76 86 83 86 85 83 80 81 77
27 26 27 35 34 31 33 28 16 23 32 39 50 52 63 57 53 51 54 53 60 70 72 72 72 72 72 72 71 67 63 55 51 53 54 62 58 59 60 74 82 83 79 88 84 81 84 80 77
25 24 26 27 32 28 34 31 24 29 30 38 46 46 55 51 51 50 52 55 64 70 72 71 71 72 70 63 47 25 21 54 56 64 65 58 55 59 72 78 77 76 79 80 82 84 86 88 86
29 27 31 41 55 48 24 27 27 34 32 37 43 44 47 47 50 53 57 62 68 70 75 73 66 61 47 28 39 24 45 43 57 49 46 59 65 61 58 69 71 72 73 77 85 83 88 89 89
27 27 34 35 46 32 20 24 19 36 36 37 41 43 43 44 48 56 61 70 70 72 68 61 55 37 30 34 30 55 41 44 38 42 57 56 56 56 56 56 58 68 74 77 90 86 82 89 88
32 31 31 28 37 28 25 15 26 29 31 36 39 42 42 44 50 59 65 72 72 70 62 52 40 35 54 57 40 39 41 38 46 53 54 56 60 60 60 66 72 74 75 82 86 92 90 84 84
27 27 25 28 32 43 43 21 23 31 32 33 37 40 42 47 53 62 68 70 66 60 56 47 37 50 44 42 40 45 34 45 51 52 56 64 68 68 72 83 84 81 84 94 96 94 84 88 83

GFSSGP_850_rhum_033.txt.gz
RH
15 14 12 12 14 14 15 13 11 30 35 40 39 35 38 54 58 56 67 76 87 91 79 71 69 65 69 68 68 64 55 35 25 25 22 16 14 10 10 11 12 13 15 17 20 22 24 25 26
18 11 9 11 14 14 11 9 33 52 63 42 47 44 43 50 73 82 85 89 93 92 75 77 74 72 70 72 67 56 34 27 27 23 15 14 11 12 13 15 19 23 26 28 29 27 24 24 25
13 10 12 10 12 12 11 22 38 36 39 42 43 48 49 62 84 90 89 94 97 92 96 76 75 73 73 75 63 39 30 30 26 17 17 14 15 17 22 29 30 28 29 30 25 22 20 20 20
13 8 11 13 13 10 11 29 28 28 33 39 46 46 65 73 76 94 96 98 98 98 94 71 84 72 75 70 47 35 32 29 22 19 19 19 21 33 33 28 26 28 26 24 24 26 26 27 27
13 9 9 12 12 9 10 29 30 43 36 35 40 78 70 47 58 81 98 98 94 98 85 81 84 79 76 57 39 34 32 28 20 24 21 29 39 35 28 26 24 25 24 26 28 29 31 34 34
8 8 11 12 12 14 13 32 33 32 30 28 29 43 66 60 65 76 93 94 97 88 93 87 84 79 68 44 38 34 30 25 25 25 39 43 37 30 28 27 28 28 29 29 31 32 33 34 36
9 8 10 10 24 27 17 26 35 31 28 26 30 33 66 80 85 86 78 98 89 93 90 93 83 71 50 42 38 31 30 26 30 46 48 37 36 34 32 31 32 32 31 34 35 36 35 36 39
8 8 11 13 26 37 21 26 32 28 38 45 38 61 46 85 93 72 83 78 97 86 87 90 76 89 52 46 38 31 30 37 50 53 45 40 40 41 42 43 35 36 39 41 42 41 38 41 48
11 11 11 23 42 34 28 31 30 28 30 37 45 39 60 95 96 98 99 91 92 91 88 85 82 86 92 55 32 34 46 53 59 58 53 66 79 81 85 44 37 39 42 45 45 44 39 47 53
9 9 9 19 42 64 25 23 28 31 34 37 48 52 85 100 98 98 99 98 98 91 79 75 82 86 78 67 37 56 62 76 89 88 81 82 86 84 82 40 40 43 46 52 52 47 51 59 57
9 11 12 10 17 20 24 25 25 26 33 30 35 70 100 100 98 95 94 98 97 91 70 77 88 86 65 65 70 74 84 83 86 95 86 78 89 92 83 73 70 73 64 67 61 60 62 68 64
11 10 10 13 22 27 19 23 21 35 43 31 44 86 99 98 87 86 86 88 78 70 77 80 87 80 73 68 67 72 78 87 89 90 80 91 75 90 84 67 69 70 66 65 63 62 69 67 65
12 10 11 19 22 22 24 25 27 33 31 29 64 78 77 70 67 67 60 58 60 61 64 70 74 75 79 77 80 85 85 88 87 81 72 84 79 80 85 79 68 67 67 66 70 68 66 66 64
11 10 13 16 19 18 20 20 37 25 27 38 54 55 52 51 46 47 46 49 51 53 62 69 71 79 85 86 89 85 90 94 99 72 79 72 62 63 86 80 72 71 75 72 62 59 64 67 64
10 11 12 14 14 18 19 18 20 26 27 35 36 35 33 34 35 37 39 44 48 55 66 72 82 89 92 99 85 70 56 58 61 62 69 75 72 72 77 80 77 76 66 61 72 74 70 69 61
10 9 14 12 11 16 18 19 22 25 27 30 32 32 30 30 29 32 36 40 49 58 69 80 84 91 96 83 63 58 51 53 76 73 70 76 78 78 72 74 76 63 65 68 76 72 67 62 59
10 15 13 12 10 12 19 29 21 26 26 29 32 36 36 36 32 32 35 38 47 62 76 89 92 85 70 71 53 60 58 53 84 81 73 75 74 74 71 70 69 64 76 77 75 70 66 61 54
16 14 12 11 11 12 13 13 17 24 22 26 31 34 37 38 38 48 47 40 44 61 86 93 99 65 64 63 64 77 60 70 85 72 69 72 73 75 75 81 71 63 72 72 77 74 63 54 45
13 12 10 10 12 10 11 11 14 21 22 23 28 35 37 43 48 64 56 50 56 71 87 95 100 89 73 74 75 75 79 81 68 70 72 70 74 72 73 74 77 74 66 76 76 68 57 53 52
11 11 14 13 13 15 10 11 17 19 20 21 25 31 35 41 53 66 69 68 69 78 86 96 99 88 91 89 87 80 78 79 75 78 79 78 68 78 75 70 72 72 70 60 59 69 67 58 56
12 13 14 14 15 14 15 16 20 23 25 27 27 29 33 38 51 65 70 73 81 87 96 95 98 91 86 77 75 74 77 78 74 75 74 76 76 76 74 74 74 69 61 53 63 67 68 64 62
16 16 14 16 18 19 16 19 18 22 28 32 35 35 33 39 49 62 70 83 91 94 96 95 88 77 76 72 66 67 58 57 61 65 69 76 78 76 73 68 70 70 68 69 67 61 71 68 63
22 17 17 16 15 21 17 16 42 23 24 28 30 37 40 48 54 62 72 80 78 79 76 70 72 67 71 72 66 70 63 71 73 73 78 78 75 74 65 66 71 75 72 69 71 73 73 68 66
18 19 19 18 16 24 15 18 16 22 20 24 31 38 46 52 57 61 62 62 63 74 75 73 64 63 70 71 73 72 76 70 65 62 59 47 47 49 54 59 64 70 69 70 71 74 72 74 79
18 20 29 32 27 28 19 19 14 12 19 19 34 43 50 53 52 49 48 46 55 68 74 74 61 64 71 75 77 78 72 61 52 53 48 54 51 49 50 60 67 67 68 67 68 77 65 76 83
19 17 29 30 26 20 21 19 16 17 20 24 34 41 50 50 47 42 42 43 52 61 64 61 62 66 73 73 67 59 54 51 52 55 59 50 50 54 60 61 63 65 66 65 64 66 74 81 91
19 23 20 27 45 35 16 13 20 23 23 25 33 38 45 45 42 39 42 44 53 60 64 63 63 64 67 63 56 60 56 52 56 53 52 52 56 50 46 55 55 55 56 60 64 65 77 80 85
23 19 25 24 38 31 15 13 17 24 23 25 31 36 40 41 40 40 42 48 55 61 67 68 64 60 60 57 58 63 68 59 48 50 53 54 53 56 56 57 57 63 65 66 64 70 73 91 93
26 24 21 22 27 30 23 16 14 17 20 24 27 33 36 39 38 42 46 52 59 62 70 69 58 54 53 56 65 62 60 50 51 51 52 52 58 59 57 58 64 68 65 64 80 83 92 88 86
21 21 22 30 25 28 39 21 14 17 17 22 26 30 35 37 36 40 48 54 60 65 65 61 54 49 54 60 60 66 51 45 47 49 50 55 62 62 59 64 69 67 74 86 83 89 86 90 89

GFSSGP_850_rhum_036.txt.gz
RH
10 11 11 14 13 16 18 14 25 47 45 44 36 41 54 60 66 84 77 80 84 60 53 51 54 60 65 68 68 65 57 32 25 24 15 14 10 10 11 13 15 17 22 26 26 24 25 25 28
10 20 10 8 15 17 14 37 38 48 56 59 46 39 46 68 68 87 89 85 88 62 59 59 62 67 73 70 68 55 32 26 25 17 13 11 11 13 15 21 25 26 26 23 19 18 18 19 20
12 15 8 10 13 16 13 32 34 33 42 61 53 46 55 75 83 84 88 88 86 82 65 67 72 75 72 74 59 34 27 26 21 14 13 13 15 19 27 26 25 25 21 20 22 24 25 26 25
15 12 8 13 15 11 21 34 27 28 35 38 40 47 55 80 79 87 89 93 92 97 70 75 81 73 72 71 44 29 28 25 16 15 16 17 24 30 25 25 24 21 22 25 28 31 33 34 34
12 10 9 11 12 10 9 28 30 42 45 34 38 58 53 66 62 88 88 93 86 93 80 85 80 68 70 52 35 31 28 23 14 18 18 28 30 25 25 24 24 24 27 30 31 33 34 36 35
10 9 12 13 11 20 14 36 48 56 57 26 37 41 50 56 49 75 91 93 95 98 86 87 82 77 56 41 38 33 31 20 20 20 31 32 28 27 27 27 26 26 28 31 34 35 35 37 37
10 10 10 10 11 14 20 35 44 39 34 27 27 50 67 68 64 68 59 91 98 98 90 92 82 72 54 41 37 34 29 22 24 36 36 37 33 32 32 29 28 29 32 34 36 36 36 41 46
8 9 11 10 10 27 28 52 52 58 40 41 46 31 50 76 74 60 64 72 91 82 81 92 82 68 46 37 33 34 25 28 44 41 37 36 38 39 35 32 32 34 37 39 40 40 38 54 54
9 10 13 11 19 51 44 45 40 29 31 39 32 53 67 95 78 70 70 87 84 85 93 89 77 57 39 34 31 32 36 47 49 43 74 83 81 81 78 35 35 38 42 43 45 45 52 57 57
10 13 11 13 52 63 66 84 25 25 25 31 51 80 92 89 77 79 80 91 98 90 67 80 89 70 45 30 34 48 54 57 64 54 88 83 84 85 68 57 44 48 49 60 60 60 62 65 60
10 12 9 11 42 54 63 41 26 25 27 30 41 86 89 95 98 99 88 85 89 91 85 87 85 74 68 47 62 76 77 86 90 87 81 81 59 76 80 70 71 71 66 68 65 63 65 68 66
10 9 8 13 43 46 45 28 32 32 30 32 58 87 93 86 87 88 80 72 72 74 80 81 77 66 64 72 70 76 85 81 69 55 63 55 78 82 69 71 70 66 67 66 67 68 68 64 63
9 10 10 22 22 21 21 31 42 38 28 54 79 90 79 64 77 78 79 73 67 73 78 57 55 70 58 69 75 79 79 65 65 70 58 82 77 81 72 70 68 68 62 67 69 68 62 66 68
9 11 18 20 16 18 30 43 48 37 36 58 69 67 59 50 55 60 54 57 61 66 72 46 36 65 75 78 74 77 76 71 84 76 80 75 67 69 81 75 70 71 69 70 67 63 70 69 64
12 12 14 14 16 21 44 40 28 26 38 45 47 48 44 41 47 44 46 53 53 58 67 70 74 82 86 75 79 71 58 51 52 55 57 73 74 68 70 70 68 68 73 68 63 65 65 59 59
13 13 18 15 12 19 32 48 22 21 28 32 33 35 34 36 38 39 43 45 52 60 68 76 86 91 86 78 69 47 43 53 49 67 62 71 72 74 75 71 70 74 65 67 66 67 64 65 60
13 18 14 15 11 16 28 38 20 20 25 27 28 28 27 28 30 35 40 44 52 62 70 80 90 85 74 69 62 50 47 50 50 59 59 74 76 74 71 71 70 63 73 76 73 71 66 55 42
22 17 17 13 10 11 22 23 18 18 23 27 28 29 30 29 28 31 34 40 49 64 74 84 94 69 74 66 59 56 61 56 60 68 70 72 70 67 69 70 66 63 72 72 70 67 63 53 54
16 17 14 10 9 11 22 17 14 15 18 26 29 32 34 33 35 39 39 37 44 68 81 80 90 78 72 71 76 67 63 65 73 67 70 66 59 58 66 76 76 76 71 69 66 62 66 66 60
15 15 19 11 10 10 11 10 11 14 16 20 27 31 34 39 42 56 52 43 46 66 84 81 87 87 79 88 86 86 77 71 67 75 58 77 63 77 74 68 70 71 69 64 56 58 65 68 65
14 14 18 16 11 10 13 11 15 14 14 16 23 27 32 38 47 59 58 57 59 74 79 77 90 94 81 90 82 78 74 75 76 71 60 66 68 76 72 71 71 70 67 61 60 63 66 66 66
16 19 17 15 16 20 20 27 18 17 19 18 19 22 28 33 41 54 65 66 71 76 78 81 86 81 80 78 74 73 75 70 66 64 70 72 72 71 71 71 68 65 67 68 69 69 67 67 69
21 21 19 13 16 27 21 29 29 21 26 24 26 26 27 30 36 47 62 67 76 81 85 85 71 76 81 71 66 68 64 64 65 69 71 77 73 61 59 58 62 68 73 73 71 69 74 74 77
19 19 17 18 19 54 39 34 29 29 27 28 24 29 31 34 43 48 59 73 79 78 74 81 80 75 71 66 66 68 66 68 70 67 66 59 50 50 51 55 58 60 62 63 68 69 68 74 70
15 18 36 74 73 44 16 19 28 24 25 62 30 29 33 42 47 51 60 67 77 75 75 74 66 63 70 71 73 74 74 71 66 56 53 49 52 52 50 50 50 45 51 58 64 65 67 73 78
39 15 39 62 94 44 19 21 18 18 17 19 28 34 41 47 50 54 57 56 64 70 73 71 62 63 69 75 78 78 68 56 50 54 56 70 52 50 53 51 50 53 57 56 56 58 66 69 74
17 21 18 32 46 57 22 11 22 18 19 19 31 36 43 46 49 48 46 46 56 66 72 68 60 62 70 76 70 61 56 52 47 62 59 53 53 52 49 47 49 52 55 59 62 63 64 70 82
20 16 30 24 40 41 19 15 34 24 20 22 30 36 41 45 45 41 40 43 50 59 63 62 60 62 68 70 61 60 58 57 61 57 57 55 55 55 56 55 55 58 64 68 65 68 74 76 78
24 24 19 17 29 48 49 24 14 16 17 21 24 34 37 42 41 39 39 42 49 56 61 66 64 62 64 62 60 59 67 59 63 52 55 54 54 58 62 60 59 64 67 68 71 77 80 89 90
18 23 21 55 33 36 56 38 14 15 14 19 21 26 33 38 39 39 40 43 49 56 62 69 68 60 59 55 60 66 60 62 51 50 53 51 56 63 65 61 63 69 69 72 76 71 89 90 92

GFSSGP_850_rhum_042.txt.gz
RH
16 12 18 20 24 33 32 28 37 60 62 62 66 74 86 90 80 78 94 87 68 74 85 84 82 79 57 64 66 59 28 20 12 9 8 9 13 19 21 19 16 17 17 17 18 34 54 46 42
11 17 25 26 22 27 26 22 52 61 56 52 57 69 82 90 98 100 94 84 52 68 91 92 82 65 64 70 66 39 23 16 10 9 10 13 19 22 20 16 18 21 24 27 27 31 50 39 47
11 14 22 19 25 22 24 40 59 56 52 49 53 67 80 92 98 94 91 81 50 71 94 92 77 62 72 73 51 27 20 10 10 11 14 20 21 20 17 19 22 26 29 31 32 31 31 35 48
19 18 18 17 19 18 17 33 51 57 46 45 56 74 83 95 91 91 89 85 92 88 93 90 69 74 75 60 30 25 15 10 11 14 20 21 20 18 19 22 25 28 31 32 32 32 32 30 37
16 19 21 17 15 16 53 52 53 48 44 49 48 69 91 100 94 90 91 79 62 93 89 76 84 83 65 35 29 20 12 12 14 19 20 19 18 18 20 22 26 29 31 31 32 33 36 36 38
22 17 23 23 20 59 56 59 55 55 47 51 57 67 85 100 100 100 100 85 88 94 87 97 94 70 39 32 26 17 13 14 18 21 19 19 18 19 20 24 27 30 32 33 35 37 40 42 43
23 24 22 18 17 52 60 57 64 61 47 54 50 80 98 98 100 100 100 100 96 94 99 100 88 60 46 36 24 15 15 18 25 22 20 20 20 22 23 26 28 30 33 35 35 37 43 48 51
19 18 17 16 15 45 56 62 52 42 43 48 61 85 92 100 98 91 94 100 100 100 95 81 61 52 47 38 25 16 19 30 26 22 22 22 22 24 25 28 32 35 36 39 40 45 51 55 57
17 20 22 18 26 53 57 59 50 44 51 76 71 70 81 98 86 79 85 85 91 93 88 72 72 58 55 34 24 22 31 30 26 25 24 29 29 31 29 31 35 38 49 54 52 55 58 60 60
16 20 18 15 45 56 60 61 45 47 68 97 96 97 99 93 75 80 99 100 98 86 70 67 89 59 44 31 25 32 35 28 29 41 42 50 58 54 54 51 57 59 62 59 57 59 63 65 63
16 18 14 21 33 44 58 56 52 51 51 63 86 95 100 94 80 83 97 77 80 69 90 95 67 56 40 30 30 40 38 59 62 64 67 62 68 72 72 71 67 62 66 65 65 66 66 68 64
15 12 12 29 44 49 61 43 44 45 43 49 48 64 90 74 69 77 60 50 54 72 93 80 65 50 34 29 41 42 43 56 73 81 82 75 82 87 79 77 68 66 67 67 67 67 68 68 63
14 13 23 40 42 43 39 42 42 74 59 51 60 69 79 68 85 70 55 50 51 64 90 89 67 43 33 45 55 55 64 69 73 78 90 87 76 87 81 73 70 69 69 69 68 70 70 66 51
18 20 38 36 37 37 40 42 30 67 64 67 64 68 72 80 85 74 66 60 64 78 78 85 59 38 41 63 67 70 74 78 71 77 83 75 83 86 84 77 74 73 72 69 68 70 61 53 54
20 30 41 41 41 34 25 32 38 55 62 78 78 64 78 84 83 80 70 64 75 67 84 82 68 66 73 79 75 78 82 86 82 71 67 71 84 82 86 71 76 74 71 70 71 59 54 56 56
21 28 43 40 37 27 25 34 34 35 63 58 48 66 77 75 74 76 71 69 68 76 86 81 66 66 70 76 81 89 84 82 76 66 56 55 63 77 75 75 79 77 73 69 59 54 56 59 50
26 24 25 37 30 30 34 32 29 30 50 63 57 66 69 74 79 74 79 73 76 87 86 75 67 70 75 87 88 87 77 73 64 56 60 61 63 71 75 78 77 69 60 55 55 58 62 56 44
29 26 23 24 34 32 32 33 27 37 41 63 60 60 61 66 71 74 79 73 68 65 38 60 60 68 84 88 81 73 70 61 56 59 61 63 75 77 76 70 55 54 56 59 62 65 61 47 40
28 27 32 29 26 33 33 28 32 36 51 59 57 53 56 62 67 65 70 70 63 56 30 38 55 69 67 78 75 69 67 60 57 63 64 72 72 66 50 48 55 58 62 67 67 65 44 41 42
30 33 35 26 21 30 32 28 27 32 41 48 51 44 48 58 62 65 66 62 56 56 52 37 43 50 64 68 66 58 58 55 62 67 68 66 56 47 52 56 59 66 68 65 58 45 50 46 54
30 35 34 30 20 15 29 27 24 24 24 38 41 37 40 45 54 54 54 51 54 59 59 56 52 57 64 72 68 67 65 69 74 68 68 66 57 57 56 60 64 63 52 49 46 53 57 64 65
32 28 28 25 31 30 21 34 29 24 24 38 40 38 34 40 44 45 48 51 52 57 60 63 66 66 73 76 67 68 69 76 72 67 64 58 57 58 66 66 53 50 54 56 57 62 66 69 65
31 24 28 27 31 32 30 34 31 28 26 26 38 39 32 32 36 40 42 45 53 57 61 69 75 82 82 82 79 83 81 71 62 59 68 65 63 71 67 58 54 58 59 61 66 63 61 49 51
25 29 38 48 43 43 32 34 36 31 23 23 26 38 41 41 36 36 42 43 54 61 66 70 82 83 90 86 87 96 82 66 62 67 72 70 74 69 70 70 66 62 60 62 57 47 24 17 33
28 36 53 59 70 54 43 43 37 29 28 27 31 30 33 43 44 42 47 54 57 70 67 67 79 82 85 85 93 92 78 65 67 75 73 76 76 78 82 66 55 55 55 51 36 20 18 21 35
36 36 59 46 72 58 44 51 39 28 24 21 22 23 28 37 44 48 54 56 57 61 65 71 79 83 87 84 88 87 74 74 75 71 77 77 79 65 59 61 72 64 44 34 22 16 24 44 46
31 40 35 65 70 78 56 33 28 30 36 39 40 31 40 40 45 49 56 58 61 65 70 76 82 87 82 89 84 74 76 78 75 75 71 60 61 65 80 62 57 64 45 26 16 22 42 57 68
30 25 38 53 53 61 43 34 44 31 34 44 47 42 51 55 53 52 56 60 62 67 68 66 69 75 82 90 76 73 78 74 71 64 63 68 70 68 61 65 68 55 39 29 27 44 60 65 68
34 32 30 40 57 58 66 41 26 36 39 46 48 36 47 50 50 54 57 62 65 69 72 75 71 71 77 77 72 74 79 80 75 65 59 62 60 61 81 71 55 52 49 38 39 48 62 71 66
32 34 38 63 37 59 74 47 28 29 33 41 42 43 43 41 41 43 48 55 63 66 69 73 75 73 67 65 68 70 72 75 70 62 61 63 78 78 64 60 56 56 60 45 42 64 72 73 63

GFSSGP_850_rhum_045.txt.gz
RH
20 14 19 20 25 34 33 30 24 58 64 70 70 74 84 98 78 75 94 85 61 83 95 89 82 77 63 52 58 49 21 14 9 8 10 13 18 18 16 16 17 21 40 55 47 45 41 52 61
16 16 27 22 24 27 25 23 26 51 59 71 63 73 86 92 97 99 100 84 74 96 98 92 87 78 55 62 60 31 19 10 8 10 14 18 19 16 16 19 22 23 33 50 44 44 43 40 41
17 14 25 24 26 24 24 21 54 57 65 61 64 79 86 99 99 99 99 96 99 99 100 95 89 70 64 68 47 23 13 9 10 14 18 18 16 16 20 23 28 30 31 33 38 39 45 48 50
20 20 18 19 19 18 18 32 50 66 55 57 66 73 95 100 99 96 97 96 100 98 100 100 88 69 72 63 29 19 10 9 12 18 18 17 16 20 23 26 29 31 31 32 35 37 39 40 44
17 19 26 18 15 19 55 63 61 55 58 61 55 87 92 100 93 96 98 93 99 100 100 98 81 76 73 38 26 14 11 12 16 20 18 16 19 22 25 28 30 31 31 33 36 40 41 42 44
22 18 26 26 18 50 57 61 55 58 60 60 68 76 99 100 93 100 98 89 96 96 100 96 94 86 49 29 19 13 13 17 24 21 19 18 21 24 27 31 32 33 34 35 38 41 46 49 49
25 30 26 19 18 20 58 56 59 51 48 53 57 93 100 99 95 99 99 99 100 100 100 100 99 74 41 24 15 13 15 21 25 22 19 20 23 26 29 31 33 33 34 34 35 41 46 51 55
20 23 20 17 16 18 53 58 59 56 51 63 64 93 97 100 99 100 96 93 96 98 98 93 88 58 36 24 15 15 17 29 25 22 22 24 26 28 30 32 33 34 33 34 39 47 50 52 56
17 25 27 20 19 29 58 57 57 64 67 87 89 77 88 99 99 92 99 96 81 98 100 91 75 57 46 28 18 18 32 28 26 23 24 26 28 31 34 35 34 34 34 42 51 53 55 58 60
19 25 20 17 22 48 60 60 54 65 90 99 98 97 98 99 98 96 100 90 74 81 82 76 66 62 51 36 23 32 37 31 28 28 32 46 38 35 36 39 40 39 47 53 57 59 61 62 64
17 20 16 15 23 42 62 58 51 62 64 92 98 100 100 92 98 100 99 98 79 86 79 71 76 56 54 36 30 46 38 50 47 57 71 69 62 59 56 58 54 54 58 60 61 62 65 67 67
19 15 14 17 36 52 58 49 48 48 49 64 86 96 96 98 99 98 87 99 93 74 62 78 53 48 46 37 39 42 38 62 72 74 78 71 65 73 72 68 62 61 61 64 66 65 68 71 65
16 14 32 23 41 46 45 45 60 75 63 54 68 83 88 93 89 73 88 83 68 64 83 83 55 56 49 34 48 51 79 81 83 80 77 61 77 79 76 71 67 65 67 69 69 70 72 70 55
20 40 48 48 44 42 43 45 45 84 76 77 73 86 98 71 82 67 67 61 58 63 73 72 56 50 41 37 51 50 78 77 74 77 76 74 70 78 79 75 74 71 70 70 71 74 69 53 53
22 42 45 44 38 31 34 42 53 72 59 93 91 86 82 67 74 54 46 46 54 61 70 69 61 50 39 46 56 54 74 79 76 65 71 67 69 76 83 82 77 75 74 75 75 73 56 56 56
20 37 52 41 39 29 26 36 48 69 63 75 83 82 90 71 66 58 49 48 56 66 73 71 48 39 41 68 77 86 82 80 74 80 74 71 78 90 90 84 80 80 78 77 74 59 56 59 49
29 34 34 41 35 34 32 31 36 68 61 75 94 96 88 77 85 72 55 54 60 58 65 70 61 56 56 78 84 84 83 85 90 86 66 59 72 90 88 84 86 85 79 72 56 55 61 57 32
33 28 28 43 32 36 37 34 35 52 64 63 83 85 80 82 74 76 72 62 66 62 63 76 70 68 72 81 82 81 89 98 89 71 57 63 69 82 88 86 83 74 60 55 58 62 61 36 37
31 30 32 29 23 35 38 32 33 48 64 68 66 77 77 72 60 65 66 68 73 80 77 82 76 67 71 76 82 86 93 90 80 59 62 67 75 78 82 78 64 52 54 59 60 60 44 42 36
31 30 29 27 24 38 36 36 27 47 54 56 62 67 72 71 71 71 68 72 72 76 84 88 78 68 64 65 77 88 87 82 68 64 69 70 73 79 75 57 50 54 59 61 55 48 43 41 47
30 32 32 31 26 28 31 35 25 28 37 55 57 56 61 63 67 74 71 66 69 73 67 56 55 54 56 69 85 89 87 80 68 64 71 69 69 67 56 51 56 63 63 54 53 54 52 54 56
34 28 31 34 32 35 27 44 31 30 32 50 54 55 56 56 65 63 70 68 64 64 63 50 36 39 52 70 89 86 80 69 66 68 72 68 68 55 54 59 66 66 56 57 63 66 66 65 60
33 25 31 30 34 33 32 34 31 29 34 40 46 50 49 49 58 62 60 54 52 66 59 56 47 44 50 71 89 84 80 74 71 77 76 70 61 61 67 74 72 61 64 67 68 63 62 49 32
26 28 38 46 45 47 34 38 39 34 27 26 33 44 45 45 52 58 59 62 62 63 60 62 60 62 71 76 79 82 80 76 77 69 70 66 66 73 79 76 68 71 74 71 70 54 42 27 23
30 40 55 57 66 54 40 45 39 28 28 27 30 32 40 39 44 50 52 54 56 53 58 63 66 70 76 80 78 74 89 85 80 68 60 66 73 78 81 78 78 74 68 89 64 60 45 27 23
34 38 59 44 66 50 46 52 37 28 32 28 21 23 35 44 40 44 46 47 48 50 55 60 66 79 83 85 87 84 89 91 81 74 68 74 79 81 83 81 79 86 86 72 64 66 27 19 37
36 42 35 65 69 78 53 44 32 30 41 45 37 29 31 41 42 39 42 45 46 50 53 64 66 73 76 77 86 83 87 87 80 79 80 91 86 86 88 82 90 89 85 96 48 42 31 44 66
32 30 39 56 45 53 50 41 45 32 28 42 49 44 42 39 45 48 46 45 50 54 62 68 73 68 65 79 87 84 82 78 90 83 85 92 87 87 78 82 84 93 80 54 52 41 43 58 65
35 36 36 43 57 58 67 48 30 34 31 37 41 40 48 45 42 43 46 50 52 55 62 66 76 69 75 80 77 74 76 88 80 80 78 78 77 77 76 76 85 58 56 60 57 42 46 52 65
32 37 38 63 42 63 77 51 26 28 36 38 36 38 44 41 37 40 40 47 54 58 64 66 69 61 69 76 73 63 81 78 80 76 76 72 67 64 73 78 57 58 63 64 47 44 51 59 72

GFSSGP_850_rhum_048.txt.gz
RH
19 12 14 18 27 33 32 28 24 34 62 76 80 78 82 95 79 81 97 97 82 88 94 84 80 71 59 50 51 42 20 12 8 8 11 14 18 17 18 24 29 33 39 41 46 58 65 70 57
14 19 25 21 26 28 24 23 22 38 66 59 66 78 90 94 96 96 100 93 82 95 98 85 84 71 57 56 54 27 15 9 8 11 16 18 15 16 18 30 43 48 44 42 40 42 48 50 54
14 24 23 24 29 25 24 18 50 74 68 59 70 86 92 97 96 94 97 88 96 99 99 92 86 69 59 62 44 19 10 8 11 17 19 16 16 20 22 34 45 46 43 43 43 42 44 48 52
15 18 17 22 20 18 18 33 61 66 60 63 68 84 92 96 99 95 92 90 90 99 97 97 86 69 67 59 25 14 11 11 18 21 17 18 24 29 31 33 34 34 35 35 36 37 41 46 50
18 18 27 21 17 16 45 61 65 64 68 69 64 91 95 92 100 98 96 97 88 96 98 100 92 81 70 37 20 11 10 19 25 21 18 24 28 32 32 33 35 36 36 38 38 41 42 45 46
20 19 29 28 21 23 59 57 62 62 68 60 66 90 94 94 100 100 98 99 100 98 100 100 91 86 56 25 15 9 14 26 26 21 23 27 31 33 33 32 34 38 40 42 45 48 49 50 44
25 30 26 22 20 17 49 58 58 57 57 62 71 91 96 100 99 97 97 99 97 98 100 100 100 84 43 20 12 12 20 29 24 20 26 30 31 33 33 34 34 35 36 41 46 49 53 56 50
20 28 23 20 18 18 43 61 62 56 67 73 72 95 98 99 94 98 100 100 98 100 100 99 88 65 31 16 14 22 28 28 24 22 29 31 33 34 34 34 35 34 35 42 48 53 56 57 58
19 29 28 21 19 20 60 56 60 69 80 87 88 85 87 100 90 98 100 100 99 98 99 92 77 57 30 22 26 28 30 29 23 26 32 32 34 35 36 35 34 35 38 43 52 56 59 61 59
22 29 24 19 17 29 63 54 56 72 92 99 99 97 98 98 99 99 99 100 100 96 90 79 64 53 54 47 33 32 32 25 24 29 32 33 36 38 35 34 38 37 41 50 56 58 62 65 64
19 23 18 15 15 37 63 62 56 74 76 91 97 99 99 100 98 95 88 100 100 95 85 78 68 62 61 42 30 24 29 26 30 33 36 34 34 35 38 38 42 47 51 57 61 62 64 67 67
21 17 16 14 27 52 65 55 53 55 53 55 88 100 98 100 100 90 88 90 87 80 75 72 74 61 54 39 26 24 32 32 38 52 64 52 52 52 55 56 55 55 57 61 64 67 66 70 68
18 16 28 37 45 47 48 51 65 82 60 62 100 98 99 98 96 99 99 85 95 96 92 76 76 60 45 31 27 45 40 52 68 81 80 71 65 68 67 67 64 63 66 68 68 69 70 72 56
32 48 47 48 46 44 46 55 55 87 86 96 99 100 99 100 99 99 99 90 78 64 74 72 51 49 41 33 32 45 47 77 81 81 81 72 74 76 71 74 72 72 72 71 72 72 71 64 54
24 41 44 44 42 40 42 40 64 85 86 88 95 98 100 100 98 71 76 79 59 63 71 50 48 49 44 38 39 49 66 85 84 82 80 80 71 69 76 80 78 76 74 74 74 73 72 56 52
28 38 49 43 40 34 31 39 58 90 85 94 95 97 96 89 74 68 55 66 61 72 86 71 57 55 44 39 46 54 81 82 81 80 74 73 68 66 81 87 82 77 76 77 77 76 60 55 54
32 37 36 41 38 36 32 31 50 81 80 99 96 87 84 84 85 63 56 57 57 62 72 68 67 60 41 41 51 58 59 77 82 76 70 71 63 69 94 87 81 81 83 82 77 61 56 55 36
35 32 29 46 32 38 41 40 52 78 78 92 86 81 78 82 65 61 54 55 63 64 71 75 66 46 36 48 60 72 83 89 84 82 80 68 62 78 94 91 87 88 86 76 61 59 58 43 39
31 32 31 30 26 39 43 39 45 66 75 85 92 78 79 79 65 70 68 58 57 62 70 73 74 60 49 48 76 87 90 91 81 80 85 62 66 69 82 89 88 86 74 61 60 63 51 49 49
32 33 34 28 27 34 40 40 30 54 71 72 87 82 74 70 77 72 71 68 58 58 58 61 67 68 62 68 76 84 85 84 82 90 77 63 67 73 83 87 85 72 61 65 68 58 57 58 59
31 32 30 30 31 32 30 36 30 33 50 64 68 55 60 56 60 64 64 66 62 61 62 60 59 68 68 63 71 77 84 85 79 86 69 66 72 82 88 83 72 66 72 73 60 61 64 64 61
35 28 29 32 35 42 29 42 30 31 46 52 58 64 61 59 61 57 59 61 58 59 65 68 69 64 65 64 65 70 67 78 70 84 74 71 76 80 80 75 75 78 75 64 62 68 69 62 52
34 27 30 32 39 36 34 37 31 31 33 38 50 59 57 53 50 54 56 54 57 61 64 66 68 76 74 73 70 68 77 85 94 85 75 79 79 78 78 80 81 78 69 63 67 70 70 82 50
27 31 40 50 46 49 36 39 42 34 30 30 32 49 54 53 53 51 54 58 59 60 65 67 66 68 74 71 71 68 70 71 94 86 84 86 79 80 77 79 79 77 68 67 69 70 84 59 39
32 41 55 57 66 55 43 50 47 31 29 29 34 31 35 48 49 49 53 54 56 57 58 65 69 66 59 54 63 65 73 76 97 88 88 82 78 77 77 80 79 76 72 74 76 85 70 70 78
35 40 61 44 64 47 45 52 35 29 36 35 31 24 26 37 45 47 45 47 51 54 54 58 61 62 61 60 64 69 85 89 98 95 93 77 71 72 77 77 82 78 75 82 86 91 70 34 27
38 44 38 67 70 79 53 42 28 31 34 43 39 33 27 25 36 40 44 47 49 49 50 52 51 60 62 66 72 80 78 98 99 83 90 82 74 77 79 79 83 83 85 88 94 56 38 30 34
32 37 44 57 51 52 48 44 41 33 31 46 44 39 40 38 38 40 40 43 47 47 50 53 49 51 58 66 74 81 87 82 73 66 68 78 79 76 81 87 88 95 96 84 52 54 44 42 50
41 41 43 46 57 55 66 49 34 29 32 33 41 38 37 38 33 35 38 40 39 43 49 47 49 53 63 73 79 82 76 70 61 65 68 75 77 88 97 91 95 90 77 59 66 56 66 56 55
34 40 44 64 45 66 76 54 29 28 31 32 32 35 35 38 40 38 38 38 39 43 44 47 53 62 72 79 72 66 70 70 72 67 86 94 95 95 92 91 83 70 71 91 69 88 56 54 61

GFSSGP_850_rhum_051.txt.gz
RH
21 14 13 21 17 22 20 18 21 20 35 78 80 67 63 80 70 67 95 98 96 97 96 87 70 60 56 54 48 35 20 12 9 8 10 13 19 21 20 20 23 34 48 58 60 60 52 41 40
14 16 24 20 17 17 14 19 19 37 61 67 75 88 84 86 92 90 98 96 95 94 97 89 72 64 59 54 44 25 13 9 8 11 15 20 21 21 24 30 34 39 43 48 51 45 41 43 48
14 24 24 18 19 14 16 16 27 67 71 64 72 91 90 92 90 91 92 94 94 97 97 93 76 68 61 53 34 17 10 8 11 18 20 19 20 28 35 42 40 37 36 37 36 39 46 49 51
13 21 17 17 16 15 15 15 55 62 63 64 67 76 95 98 99 91 92 97 98 99 96 96 79 71 65 42 23 12 8 10 18 20 19 19 27 41 44 44 40 36 33 35 37 46 48 49 49
18 19 21 20 17 14 16 48 65 56 58 67 68 86 89 94 100 92 97 97 97 99 99 100 84 83 68 28 16 9 10 16 20 18 21 24 29 34 36 36 35 35 35 37 40 43 46 46 48
20 20 22 19 18 15 31 60 59 61 64 66 70 78 92 90 98 96 99 99 100 98 99 100 94 83 44 21 13 9 14 22 18 22 28 32 35 34 35 36 38 39 42 45 47 50 50 44 43
22 20 21 20 18 16 32 65 55 54 59 62 71 70 98 99 98 100 100 98 100 99 100 100 100 76 46 27 21 19 24 22 19 28 31 35 35 35 38 40 41 44 47 47 50 55 56 51 41
20 21 22 19 17 16 39 61 60 58 78 78 68 79 90 98 88 92 99 100 99 99 98 99 94 86 67 42 31 50 26 21 22 30 34 35 36 38 38 39 41 41 42 50 56 58 58 56 49
20 22 23 20 18 18 58 53 66 74 82 92 81 81 81 98 100 98 98 97 93 99 100 100 94 72 70 45 32 37 29 24 27 33 33 34 34 35 37 38 40 39 46 54 58 59 61 64 55
20 24 22 17 16 19 52 54 65 68 84 91 99 98 100 100 100 98 98 98 98 98 97 95 92 82 69 53 58 38 33 24 29 32 33 34 35 35 37 38 41 46 50 58 59 61 64 66 63
21 20 17 15 16 30 47 58 59 67 66 77 94 99 100 99 100 100 99 100 99 93 92 90 81 66 66 47 55 58 38 27 29 30 30 35 34 36 37 38 39 47 59 60 61 62 65 67 66
20 18 17 16 26 48 55 59 54 61 61 61 97 98 99 96 92 86 100 100 100 100 99 96 73 67 66 69 70 43 33 28 30 30 34 34 35 38 37 38 51 58 59 60 64 67 67 70 67
19 17 27 29 36 50 53 50 54 78 84 80 97 97 95 89 93 86 98 99 94 85 79 74 68 67 65 63 42 35 34 30 32 34 36 35 37 41 50 60 61 62 63 66 68 69 70 69 68
24 46 47 50 51 50 49 62 59 96 94 76 89 98 99 97 94 84 85 82 88 78 78 74 82 72 58 50 34 39 36 32 36 52 64 60 64 65 67 68 69 68 69 71 70 71 68 70 59
26 38 41 44 44 39 45 41 48 86 98 95 98 99 100 99 98 97 96 85 82 86 84 69 51 42 39 42 35 42 39 41 62 74 78 77 73 78 77 75 76 75 76 74 73 73 73 67 53
30 35 40 38 39 36 30 32 66 97 94 88 94 99 99 98 98 100 98 89 73 73 71 71 58 49 39 33 32 46 43 65 77 80 77 72 71 68 70 80 84 79 77 74 75 77 74 57 54
29 30 36 38 37 34 36 32 60 95 88 86 98 100 100 100 98 76 77 70 56 59 58 50 52 53 52 49 42 43 48 58 84 80 68 68 68 68 68 68 82 78 76 77 79 78 61 57 46
32 28 27 32 35 39 37 34 59 89 86 80 85 98 97 98 89 57 60 59 60 66 72 67 61 64 64 59 45 43 54 76 81 76 77 73 74 64 60 75 85 81 81 83 82 67 60 55 42
30 32 28 27 30 29 35 38 36 80 83 84 84 87 94 71 84 63 53 52 53 58 70 75 76 72 68 53 43 44 56 53 60 80 76 73 71 59 64 78 91 89 87 86 73 63 62 50 54
34 33 32 28 27 32 31 29 32 64 72 74 79 80 82 83 89 79 66 59 56 56 60 65 74 75 61 47 38 49 54 64 78 79 82 74 74 62 68 79 89 91 89 79 66 66 53 60 62
32 33 31 30 28 31 30 28 33 36 61 74 74 75 75 79 63 74 74 70 64 57 55 59 64 68 73 55 46 49 72 82 88 84 75 81 72 66 73 88 95 92 81 68 70 64 58 67 64
36 30 31 31 30 31 28 32 29 30 40 53 66 71 72 58 62 62 64 67 68 65 60 58 59 61 73 76 66 64 66 75 68 67 79 85 71 70 77 93 91 81 71 71 71 60 66 68 74
32 30 32 32 34 35 33 31 27 30 30 34 46 61 62 57 48 48 48 51 59 58 56 57 61 65 69 79 82 73 71 75 78 82 100 86 76 76 80 89 84 79 75 74 68 65 66 74 80
31 34 38 42 40 45 35 32 30 26 25 25 25 40 57 48 40 41 44 52 52 55 58 57 61 64 72 76 73 75 73 71 72 75 95 93 81 82 85 84 84 80 76 76 70 76 90 82 88
32 35 44 46 50 47 43 43 34 28 27 27 30 30 37 44 46 40 43 46 50 52 55 56 58 61 67 67 65 70 66 76 81 86 99 96 86 87 82 80 77 75 77 82 82 90 84 91 80
38 35 50 46 49 40 43 41 23 28 28 38 37 32 29 35 43 46 40 41 46 48 52 56 58 60 59 62 65 70 63 72 85 100 100 97 94 90 79 79 76 73 79 84 84 91 92 71 42
38 41 37 56 67 61 41 34 24 27 29 39 40 31 28 28 33 38 49 47 47 48 47 48 55 57 57 59 64 71 67 64 69 79 100 99 99 94 83 81 81 83 91 85 92 93 65 40 35
35 35 44 50 53 53 39 40 26 26 30 31 38 39 30 32 33 35 38 42 46 49 51 54 58 57 55 50 53 68 68 74 78 91 93 100 100 99 91 92 87 98 93 99 93 56 54 60 78
40 40 45 40 46 44 49 36 32 25 28 32 36 36 31 28 30 34 36 38 41 44 46 48 53 55 55 54 53 64 74 81 87 86 93 99 100 100 98 96 94 99 98 97 64 74 90 90 55
36 40 40 53 46 58 56 42 26 29 26 30 33 34 33 31 32 33 33 36 40 43 46 46 50 50 50 54 59 70 72 65 72 80 72 81 99 100 100 97 99 100 90 71 81 98 86 57 57

GFSSGP_850_rhum_054.txt.gz
RH
20 18 12 20 13 11 12 11 11 13 20 41 53 43 38 63 54 60 92 100 99 99 89 70 63 60 72 77 72 57 48 38 24 14 9 10 13 17 20 26 40 51 54 53 50 45 38 41 43
16 14 22 14 12 13 11 10 12 21 34 50 57 63 49 56 77 86 98 97 95 98 98 95 63 58 56 54 50 44 29 18 12 10 11 15 19 20 24 35 50 55 56 54 45 39 41 44 42
14 19 17 12 12 12 11 11 13 36 53 45 49 59 62 68 87 92 93 96 97 90 98 99 62 60 58 54 44 26 16 11 10 12 15 19 20 22 30 38 44 50 60 43 42 42 43 42 43
20 18 14 12 11 10 10 11 24 42 45 48 46 51 73 97 98 86 92 98 97 96 98 91 66 68 60 47 27 16 10 10 12 17 19 21 26 33 36 35 37 43 38 42 44 41 40 40 41
16 13 13 12 12 10 9 14 33 37 39 42 46 53 62 98 93 88 95 92 98 96 99 95 77 76 52 29 19 12 10 13 17 19 22 30 37 38 36 36 34 35 39 39 39 42 42 41 42
13 13 12 12 11 8 10 21 38 42 39 45 42 44 68 90 90 93 96 99 97 99 98 97 82 79 61 52 23 19 18 18 20 20 21 40 39 36 33 34 36 37 41 44 48 46 41 37 33
15 12 12 12 11 11 17 37 36 37 36 38 48 38 90 97 94 93 99 98 99 99 100 100 88 87 51 61 26 30 43 22 18 23 25 34 32 34 35 38 41 44 47 50 52 52 49 40 34
15 13 14 12 11 13 20 33 47 43 45 63 65 42 72 99 100 92 100 98 99 100 97 98 98 88 48 39 33 25 45 26 25 28 33 35 35 38 41 44 46 47 50 55 57 57 56 50 40
17 14 14 13 12 14 28 22 44 64 57 62 76 76 98 99 99 90 94 99 99 100 100 98 96 63 51 64 53 37 26 36 40 37 38 39 43 45 51 44 44 48 54 58 59 62 64 59 45
14 15 13 11 11 12 17 25 34 52 56 59 76 99 99 96 100 86 94 92 99 100 100 100 88 74 86 68 53 44 45 46 39 39 39 56 63 70 49 43 46 53 57 59 61 63 65 64 55
14 14 11 12 12 13 15 24 40 45 45 46 69 99 100 100 99 97 100 99 100 99 100 100 91 74 70 74 74 78 66 46 42 35 38 41 43 41 43 46 55 58 62 62 64 66 65 65 63
17 14 14 14 20 20 21 36 38 39 48 58 81 98 98 99 99 97 99 99 100 100 99 93 92 84 82 94 68 59 56 51 36 35 36 36 38 44 58 73 81 58 71 63 66 66 67 65 66
18 15 23 21 30 31 42 37 37 49 65 81 99 99 98 90 98 100 99 100 100 99 99 100 100 96 89 79 70 70 50 39 45 39 38 37 47 42 54 68 74 68 64 67 67 69 69 64 67
18 25 33 33 34 38 35 41 43 64 75 85 90 86 90 89 88 100 99 98 97 98 99 94 92 88 88 80 74 52 41 44 42 36 37 35 36 37 45 53 60 64 67 69 70 71 70 67 64
20 28 30 32 35 33 37 36 31 62 73 74 81 81 94 100 92 90 97 99 94 94 97 90 93 93 81 74 68 86 79 74 52 55 36 37 44 50 59 66 68 71 71 72 72 72 73 73 56
20 27 21 30 31 30 32 25 34 62 62 62 67 80 91 100 99 93 91 90 88 84 88 93 94 85 90 85 65 85 77 46 69 43 60 66 67 67 70 73 74 77 78 77 73 74 75 71 56
20 21 21 26 24 24 27 24 31 59 57 53 64 77 83 92 99 100 92 82 80 79 82 88 87 75 78 90 54 39 53 50 55 71 79 77 77 74 74 77 77 78 83 78 75 76 77 64 57
19 20 18 25 22 26 26 25 23 49 49 49 63 71 76 92 88 92 89 84 82 81 78 78 83 80 61 83 45 47 58 62 64 73 73 79 77 74 73 69 72 81 82 77 77 79 77 64 58
20 20 18 19 22 22 21 20 18 40 53 47 53 68 82 72 78 78 81 82 83 83 88 88 88 83 92 92 85 73 57 75 62 67 78 71 71 69 74 74 74 86 82 78 80 81 67 67 56
25 22 19 20 22 24 18 18 20 30 44 48 46 52 57 67 74 74 77 75 76 80 86 86 84 92 94 90 86 78 73 79 67 68 68 72 74 70 74 70 77 87 88 84 83 78 71 71 59
26 23 21 20 20 19 20 18 21 26 37 43 48 45 47 54 65 72 70 75 80 77 86 89 90 92 96 92 90 85 86 89 60 50 53 73 73 72 72 70 78 85 88 86 85 72 69 70 76
25 21 23 23 23 24 20 26 18 20 28 35 41 48 47 45 54 67 74 73 74 76 75 76 77 84 93 97 86 81 72 74 74 58 68 69 72 83 74 71 80 86 90 89 82 67 74 71 76
24 24 25 24 24 25 22 23 17 20 19 20 28 37 45 47 48 55 66 72 77 78 78 79 79 81 89 94 96 93 82 73 82 86 71 73 78 88 79 79 83 94 93 85 72 69 69 63 69
24 26 27 28 25 33 23 23 19 16 16 16 17 23 35 42 47 46 53 65 72 80 85 87 84 83 89 94 76 90 90 87 93 75 71 78 86 92 80 83 88 93 87 78 73 71 72 68 85
26 28 36 40 38 38 28 27 19 15 17 18 20 22 22 33 44 49 49 57 66 74 87 83 78 85 86 87 76 74 78 81 90 90 67 82 87 88 91 84 90 91 83 79 73 74 77 81 87
26 26 35 44 42 32 30 29 18 19 19 20 27 29 29 26 34 42 48 52 60 69 86 70 62 76 82 71 59 64 66 69 76 79 78 86 84 94 100 90 94 88 85 82 83 84 86 93 93
30 32 24 36 50 44 25 20 15 17 19 21 23 29 26 28 33 36 39 48 56 65 80 81 86 86 86 74 74 64 61 66 76 74 75 82 96 98 100 98 95 91 91 83 86 91 95 94 43
27 23 34 32 45 42 26 24 16 18 16 17 17 19 28 33 34 37 41 46 56 63 72 88 87 85 92 95 72 65 66 75 91 81 77 80 91 99 100 100 95 92 92 88 93 94 97 87 94
32 31 30 27 31 36 35 25 17 16 16 18 22 25 28 36 39 43 45 49 57 65 72 81 80 83 88 94 97 96 96 87 85 89 91 80 82 96 100 91 93 100 97 98 99 100 92 97 100
23 26 28 38 39 37 42 31 14 16 18 20 22 25 31 39 45 48 55 59 62 65 71 76 79 82 85 95 99 99 85 78 88 89 87 83 90 100 100 100 100 100 99 98 97 95 99 100 94

GFSSGP_850_rhum_057.txt.gz
RH
19 18 22 14 13 11 10 9 6 11 12 14 24 20 22 18 50 75 86 90 97 99 98 68 90 100 98 85 82 77 73 72 50 29 13 9 11 14 18 34 60 62 57 56 47 36 37 38 36
30 20 17 13 13 10 9 6 11 9 16 31 31 32 31 31 60 76 74 97 95 99 97 96 73 97 85 85 82 79 77 52 31 13 10 12 16 20 26 40 61 70 52 45 37 39 39 38 37
26 20 16 12 11 10 9 12 9 14 27 25 25 34 37 42 65 77 79 85 64 100 96 98 64 78 81 83 83 78 53 32 15 10 13 18 22 28 40 52 65 76 45 40 40 41 40 40 39
18 14 12 11 10 8 8 8 10 17 24 26 24 31 56 83 81 94 92 96 93 96 98 83 62 75 83 85 72 55 35 16 10 14 20 21 28 41 52 55 61 68 40 41 40 41 42 40 38
15 11 11 12 9 8 7 7 12 19 24 25 27 30 53 90 98 74 95 98 94 94 99 94 71 79 76 65 54 36 19 12 16 22 22 24 34 42 43 52 58 41 40 40 42 39 38 32 27
13 10 11 10 9 7 7 10 15 24 26 29 28 27 64 89 96 89 91 99 96 97 100 97 79 82 72 56 37 24 15 16 23 24 27 33 35 36 37 37 37 38 40 44 43 39 34 29 27
12 11 11 10 9 9 10 21 20 25 26 24 30 30 74 84 86 89 96 93 90 83 87 97 98 86 70 75 64 41 44 36 33 26 34 40 37 36 36 36 38 42 46 49 47 44 35 30 27
12 10 11 9 10 13 17 20 29 29 28 38 40 34 51 83 98 99 99 100 98 72 98 100 92 95 75 60 62 45 67 62 39 33 42 39 36 34 36 40 44 47 52 53 55 55 47 34 29
13 11 11 11 10 12 15 16 23 36 34 36 56 77 95 87 99 98 100 100 100 99 95 95 95 84 83 62 50 53 64 58 46 48 44 38 40 41 50 44 47 50 55 57 59 62 59 44 35
11 11 11 9 9 10 11 13 18 30 33 38 67 97 98 99 100 99 99 99 100 99 100 100 96 99 88 73 66 72 66 56 52 48 44 42 44 67 51 48 50 54 57 59 60 63 61 57 48
10 11 9 9 10 10 11 11 19 26 28 26 42 99 99 99 98 98 99 99 100 100 98 100 100 98 94 76 58 69 70 69 51 59 69 52 59 78 53 52 56 58 61 62 62 63 66 62 57
12 10 10 10 12 15 15 19 24 24 36 45 76 100 98 98 97 100 100 100 99 100 100 100 97 80 68 70 98 99 83 59 55 44 48 55 68 72 50 51 56 62 72 66 75 70 65 61 59
13 10 12 15 15 19 22 25 25 30 43 68 89 89 86 92 95 98 99 99 100 100 100 97 85 89 99 97 83 71 64 59 52 58 75 40 69 72 68 80 81 77 76 74 75 68 68 62 64
13 13 16 18 16 19 24 23 26 38 55 72 70 77 83 76 86 100 100 100 100 99 100 98 91 96 90 87 86 81 72 62 77 88 54 49 81 77 81 84 81 79 80 78 73 75 74 65 65
14 16 18 23 18 20 24 40 44 44 57 58 60 70 77 63 71 94 98 98 99 98 98 92 87 95 96 88 72 75 74 87 83 65 51 69 88 86 83 78 83 82 77 79 77 71 72 68 59
14 15 21 66 42 19 21 67 76 39 42 42 49 54 73 81 69 88 92 100 98 96 92 93 90 87 86 81 75 81 83 75 59 69 84 84 82 57 62 90 77 75 78 76 82 74 74 69 61
14 19 24 31 22 20 19 36 26 34 35 36 43 48 59 81 70 75 78 79 85 87 97 91 93 97 76 73 79 83 81 65 72 74 88 68 46 57 64 81 84 89 90 84 78 77 76 71 62
14 18 16 28 36 17 22 20 18 29 31 33 38 51 57 61 67 77 62 64 64 73 82 84 91 88 82 76 81 82 84 86 69 73 85 70 89 88 71 85 97 99 91 84 80 76 75 74 62
15 15 15 28 32 21 18 16 16 24 30 31 39 46 51 61 64 74 71 66 62 71 78 83 87 84 78 77 78 76 74 72 76 75 90 85 77 87 92 94 97 85 84 88 79 75 77 76 67
16 17 15 13 15 17 16 17 20 18 28 30 34 49 51 48 61 65 69 70 68 69 72 76 76 74 72 66 67 64 66 67 79 84 89 85 82 94 92 94 97 85 91 86 81 77 80 77 74
19 19 16 16 17 16 16 17 19 14 24 28 31 35 42 53 56 60 65 66 69 70 72 69 71 72 73 67 65 65 64 60 66 75 86 68 72 70 78 85 100 95 92 88 84 81 82 76 76
22 15 16 19 18 20 21 25 25 16 19 25 28 29 34 38 51 58 62 63 67 69 73 74 72 70 72 74 67 66 64 61 64 77 86 81 48 54 69 84 95 100 98 91 85 84 84 82 71
19 19 19 18 19 19 21 19 20 14 14 16 21 26 29 33 41 48 53 56 62 65 69 74 74 71 69 71 72 71 71 65 64 75 86 84 52 63 79 87 94 99 100 89 88 86 86 83 78
16 21 21 21 22 29 20 23 27 24 13 13 13 21 26 30 32 39 47 52 55 62 68 72 74 69 67 70 77 79 75 78 65 66 92 95 94 75 76 99 100 98 91 95 92 94 92 80 74
21 23 35 44 33 33 20 21 18 22 12 12 13 14 19 26 32 33 38 49 54 59 66 70 71 68 69 71 76 82 86 87 86 76 89 95 96 100 96 87 89 94 98 100 100 98 88 80 74
24 22 35 51 46 33 25 24 17 13 13 13 14 17 20 20 26 32 34 40 49 56 66 72 71 72 70 76 82 88 91 93 96 96 94 98 100 100 99 96 97 92 97 100 98 97 94 80 79
20 28 19 30 34 39 23 17 14 12 14 14 15 18 20 22 21 27 33 36 42 52 60 71 76 75 75 78 89 86 63 96 99 97 100 100 100 98 92 98 100 97 88 98 96 95 92 85 89
20 21 30 29 51 48 23 20 18 15 14 13 13 15 21 23 22 25 28 34 39 46 55 71 82 79 80 88 91 98 98 99 96 99 99 98 98 82 92 100 100 100 99 100 92 99 95 94 95
25 28 25 23 27 47 38 21 15 14 13 13 13 15 17 24 28 29 31 31 36 42 52 69 77 76 80 83 85 95 99 94 93 97 100 100 96 98 100 100 100 100 100 100 100 98 100 99 98
20 23 24 35 36 33 33 33 14 13 13 14 14 15 20 25 28 34 36 37 41 48 54 62 72 75 74 77 84 96 99 100 100 100 100 100 99 99 100 100 100 100 100 100 100 99 99 97 99

GFSSGP_850_rhum_060.txt.gz
RH
16 16 17 24 15 14 15 10 6 7 18 37 40 47 52 39 24 44 52 41 69 89 81 78 84 97 89 78 74 69 69 69 59 35 12 9 11 29 68 69 56 56 48 42 32 35 33 30 30
21 33 23 14 16 17 11 8 11 11 34 29 32 36 36 33 46 55 56 43 27 41 80 92 97 98 88 81 78 73 72 70 46 18 9 10 15 49 67 58 50 52 44 34 36 35 34 34 35
21 23 16 16 16 14 12 8 9 9 19 21 29 24 39 53 70 72 79 68 72 73 88 89 99 100 93 83 80 76 76 59 29 10 10 14 22 44 66 68 54 44 35 38 38 38 37 37 33
23 15 13 14 12 10 8 9 8 10 14 21 20 54 47 59 89 92 92 84 92 100 97 89 99 98 99 89 84 82 72 44 15 10 16 20 29 46 65 66 48 36 36 37 38 37 37 27 24
18 12 13 13 11 8 6 7 7 8 24 48 30 76 73 40 96 93 95 91 89 93 97 88 100 100 92 91 88 83 55 22 10 15 23 26 36 51 66 61 37 36 37 39 36 32 26 24 21
16 11 12 11 9 10 8 7 9 12 52 61 60 65 60 58 72 88 100 93 96 98 100 97 99 98 100 97 92 63 31 14 16 25 31 36 50 59 59 50 38 38 42 40 36 29 25 22 17
13 12 13 10 9 10 12 13 14 25 58 60 63 81 88 78 81 99 83 76 90 92 77 69 99 100 100 100 77 36 23 26 33 37 44 47 51 55 54 39 38 43 46 44 40 32 25 22 20
11 10 12 10 10 12 18 16 24 28 70 47 46 57 87 54 100 98 97 95 95 95 83 75 67 64 89 86 89 64 64 60 43 51 64 56 55 45 40 40 42 48 49 51 52 39 28 25 24
11 13 13 12 12 11 12 13 26 21 47 59 78 91 99 99 100 99 98 92 98 99 91 82 77 92 85 86 78 70 62 53 55 68 59 49 50 48 42 44 48 52 54 57 58 53 38 34 31
10 12 11 9 8 9 10 12 12 24 38 67 89 97 98 100 100 97 98 99 98 98 100 95 97 96 92 84 82 62 70 62 76 65 54 53 55 44 48 49 52 54 58 60 61 58 53 51 46
10 12 9 8 9 9 9 10 10 13 66 64 66 72 98 96 93 92 99 100 99 100 98 100 100 99 97 90 71 70 60 67 76 61 48 54 50 51 48 47 53 58 60 60 61 62 60 57 44
11 9 9 9 10 10 12 14 18 50 66 43 80 99 100 95 100 100 100 100 100 100 100 99 99 99 98 79 67 63 71 76 70 73 70 67 58 47 49 48 56 58 61 61 68 69 64 60 48
11 11 9 10 12 12 13 17 45 66 76 83 89 89 94 92 100 99 99 100 100 99 100 100 99 100 95 74 74 65 83 84 73 72 57 52 42 48 52 52 56 60 70 67 75 68 68 62 53
11 11 11 23 25 24 14 38 48 62 70 67 64 71 81 84 86 99 98 99 100 100 98 100 100 96 85 78 77 85 92 77 61 54 47 45 55 61 64 76 79 74 76 70 75 72 71 66 63
12 14 14 30 25 28 24 38 59 57 62 59 58 70 60 79 91 97 100 98 98 99 99 99 96 94 82 74 89 88 73 73 56 54 48 59 75 58 84 85 82 80 78 78 74 76 73 69 59
14 13 18 35 24 20 32 39 48 48 55 48 50 60 63 60 84 83 91 98 99 96 96 93 87 87 85 86 87 82 76 62 61 61 66 64 83 79 72 76 76 83 79 77 77 75 73 70 61
14 17 16 32 29 30 33 33 54 39 50 46 43 46 65 66 79 89 83 87 87 85 81 93 94 90 82 80 68 63 65 67 74 72 78 73 52 67 62 87 85 83 79 80 78 78 75 72 67
17 14 15 22 30 28 22 23 42 68 68 36 37 35 62 69 63 80 85 92 95 88 88 88 85 77 76 75 76 84 88 69 64 67 76 84 74 57 55 65 83 88 87 84 82 81 76 74 72
15 16 16 23 19 21 24 17 22 27 46 27 39 39 49 60 62 62 70 74 78 78 81 77 75 74 69 72 71 82 89 84 59 73 69 75 69 69 78 81 90 96 90 83 83 82 79 76 71
17 14 14 14 18 22 17 15 15 37 50 26 30 40 45 50 62 66 60 66 66 67 80 80 72 65 72 78 66 86 75 61 52 64 71 77 73 74 77 76 82 94 83 94 84 82 78 76 76
17 18 16 17 23 17 17 17 15 17 21 22 29 42 39 48 59 69 64 64 67 66 75 84 72 74 75 88 71 72 66 60 62 71 71 81 70 65 70 69 70 85 97 97 90 86 82 78 77
22 15 15 15 21 21 18 28 23 19 19 21 24 34 43 48 56 65 67 67 67 72 74 77 75 75 72 69 66 64 67 68 67 64 72 74 64 68 75 81 75 70 78 82 82 89 90 82 79
20 17 19 18 18 20 18 30 27 19 21 20 24 25 40 46 50 59 64 68 69 69 71 70 71 71 73 66 68 67 63 61 60 61 70 80 80 72 62 68 61 66 70 92 94 93 93 90 80
16 18 20 20 21 33 21 25 21 23 24 18 21 24 28 38 47 52 61 65 66 67 72 72 70 71 71 69 64 67 70 68 64 65 67 76 75 70 58 54 60 77 88 94 99 99 100 94 98
20 22 36 57 47 42 18 19 25 32 28 18 18 18 23 32 36 45 53 58 61 64 66 72 72 74 70 70 72 74 66 76 71 66 67 78 82 72 65 72 77 80 89 95 100 100 98 100 99
22 23 38 49 79 52 39 29 18 20 20 14 12 12 19 23 31 35 41 49 52 59 65 66 72 71 73 70 69 70 75 73 76 77 76 79 78 72 84 99 95 94 94 99 98 98 98 96 96
20 30 21 32 54 65 41 32 16 14 13 13 13 15 17 18 23 31 33 42 48 52 59 66 70 73 71 68 68 70 69 51 84 82 88 94 89 100 98 100 100 100 100 100 100 100 88 84 96
18 14 33 30 58 55 28 20 32 17 15 12 13 16 21 20 20 21 30 34 45 50 55 60 64 68 70 70 70 71 61 74 77 81 93 76 96 99 100 100 100 97 98 100 100 100 91 98 100
19 23 28 27 31 47 53 39 43 21 14 13 14 14 16 21 24 23 24 30 36 44 52 58 65 70 73 74 75 77 80 89 83 77 76 77 93 88 100 98 93 99 99 97 97 100 100 100 98
18 23 24 40 37 40 48 38 17 18 16 15 14 13 17 20 24 28 29 29 35 38 46 60 71 74 75 75 78 81 88 88 65 74 94 95 100 99 99 99 100 100 99 100 100 100 99 99 100

GFSSGP_850_rhum_063.txt.gz
RH
14 16 18 26 37 29 29 21 15 28 37 38 40 30 37 44 54 80 74 76 88 53 56 81 97 84 70 62 59 63 63 63 49 20 10 12 20 53 35 50 52 43 32 30 29 28 28 48 64
16 26 36 32 28 33 25 16 15 28 30 31 34 32 34 73 74 81 87 83 57 52 37 29 52 95 79 68 64 67 66 62 38 12 11 14 55 55 46 52 45 36 31 30 29 29 30 49 66
18 31 36 28 31 30 24 15 12 13 30 31 30 45 78 90 64 60 46 50 64 46 46 41 89 92 79 73 68 69 69 57 24 11 14 38 58 42 47 46 39 31 31 32 31 32 30 47 63
20 22 22 23 25 21 18 13 10 12 31 46 46 74 66 99 94 71 41 57 73 53 61 76 95 81 86 79 74 74 71 48 14 10 18 64 55 45 46 42 31 32 33 32 31 25 24 50 59
29 28 26 26 23 16 12 10 31 46 50 66 49 79 65 59 92 80 68 81 96 98 90 90 85 96 97 86 80 78 66 30 11 15 25 72 70 58 40 34 32 34 34 31 26 22 22 51 55
30 19 28 26 18 13 12 15 37 49 48 58 59 73 76 94 74 73 60 80 83 92 83 98 99 99 100 93 89 77 47 16 15 22 44 74 70 58 35 33 35 39 35 30 24 21 18 39 53
22 24 26 20 16 14 17 15 53 55 50 65 60 73 54 50 66 70 61 71 73 74 72 71 79 96 100 100 100 80 42 30 64 41 62 73 67 52 35 37 41 41 38 30 24 21 18 26 46
16 19 19 16 15 16 16 16 31 31 60 72 61 75 69 54 95 95 73 80 82 83 73 75 72 77 70 83 90 95 61 56 74 64 67 74 71 59 42 41 45 45 45 39 27 24 23 28 44
15 19 21 18 15 15 12 14 19 54 71 62 59 84 74 74 99 100 99 94 95 93 86 78 80 82 75 83 84 78 68 56 63 72 75 75 76 58 45 46 48 52 54 48 32 30 30 29 35
16 22 18 13 11 11 11 13 18 70 68 73 78 81 92 100 99 97 99 98 99 98 98 94 81 88 82 97 80 72 44 50 68 76 68 62 63 51 45 50 53 54 57 57 51 42 39 38 35
15 17 13 10 9 10 12 40 51 56 63 62 71 87 96 98 100 99 99 99 96 100 92 94 93 92 82 87 78 76 54 53 74 78 68 56 53 47 48 51 53 56 58 60 60 55 44 39 37
16 12 11 10 18 19 13 46 78 69 68 72 91 93 94 93 86 96 99 98 98 98 99 100 100 92 92 86 84 80 58 67 72 65 56 47 47 48 42 48 52 55 61 62 63 62 57 55 38
17 14 11 14 16 18 27 49 64 78 36 48 89 90 89 94 89 96 99 98 100 100 100 100 100 99 92 77 65 75 89 72 57 62 60 58 50 43 45 43 44 55 61 67 65 66 66 58 41
14 15 13 16 20 21 34 48 42 58 38 46 76 89 97 90 89 97 98 100 100 100 100 99 100 100 82 77 68 64 60 73 74 66 59 50 50 55 47 43 41 56 65 71 68 70 70 63 61
19 21 18 23 21 20 27 42 46 46 54 74 74 60 93 91 84 95 97 91 100 99 99 100 98 97 86 82 75 76 84 84 72 59 53 64 62 60 43 38 61 72 78 78 73 74 73 69 68
24 21 25 21 26 24 30 46 45 50 48 50 58 66 85 88 80 83 99 98 99 98 100 100 100 96 78 69 71 90 82 73 61 59 61 66 56 41 42 67 79 84 81 78 77 76 75 72 66
27 30 24 28 30 29 35 42 55 54 49 47 47 75 76 95 85 81 83 93 100 100 98 98 95 89 77 72 68 68 66 65 61 66 68 48 43 45 72 74 82 82 83 80 74 75 75 72 68
31 27 20 35 33 34 41 43 51 48 59 63 64 67 70 86 75 81 87 92 90 98 99 91 88 83 76 71 79 81 76 66 56 74 68 53 52 53 66 78 69 82 84 78 74 78 78 74 73
24 22 22 26 27 35 39 37 59 61 68 69 65 59 70 83 73 78 80 79 80 82 84 87 86 88 80 89 91 75 64 64 62 64 52 69 69 71 63 50 64 73 74 76 80 79 81 77 76
22 23 22 22 25 25 28 30 42 62 64 57 54 66 68 70 78 74 68 62 78 78 84 83 81 80 87 71 65 63 69 60 57 54 66 72 74 75 62 53 60 68 83 84 86 87 82 81 80
23 23 24 23 24 22 27 30 45 46 42 47 47 50 57 64 77 77 73 59 69 67 60 66 67 67 64 64 70 76 84 83 78 61 69 70 72 68 67 61 65 70 86 87 80 78 79 77 82
26 20 21 22 26 36 22 41 25 35 39 39 43 48 51 66 60 70 76 69 51 51 56 57 59 57 60 68 68 72 83 81 66 47 46 54 60 64 68 68 68 75 77 79 75 79 83 88 84
23 23 22 25 31 30 28 42 36 27 28 32 47 46 49 59 63 61 65 68 64 51 51 56 56 59 67 74 82 84 70 64 51 56 61 60 65 68 70 70 73 73 81 90 87 86 87 95 95
19 23 25 25 32 46 31 38 39 32 26 24 33 47 42 54 65 62 59 62 66 64 63 54 54 55 56 66 77 83 71 65 66 67 65 64 69 70 77 76 80 76 79 86 83 94 100 99 99
23 28 52 65 66 62 35 44 29 30 26 26 32 50 38 33 61 65 66 62 69 72 70 70 66 57 64 70 66 67 72 70 66 65 62 62 65 66 66 72 74 74 75 76 92 100 100 100 100
28 32 62 57 80 67 40 53 29 28 22 22 19 29 30 51 56 62 62 62 63 66 73 73 71 67 68 72 71 65 60 68 74 72 70 67 67 67 72 79 80 85 82 89 90 96 100 100 100
29 35 29 44 55 72 57 35 32 26 26 19 14 15 36 48 52 55 57 58 58 59 63 68 69 69 70 73 75 73 72 71 68 72 71 70 72 75 82 77 95 98 98 98 100 100 100 100 95
22 22 41 49 70 77 51 45 48 37 21 15 17 22 22 34 44 51 53 52 53 51 51 57 59 61 63 68 70 71 75 72 72 73 80 76 90 85 81 76 93 99 98 100 98 100 99 88 92
30 28 29 40 49 66 64 54 44 38 29 17 23 17 21 22 22 34 46 45 42 48 52 52 57 58 63 65 65 69 70 68 70 69 82 75 65 80 71 86 98 100 100 92 97 100 99 100 100
22 26 30 60 52 56 66 55 29 31 26 19 16 16 18 21 24 24 31 40 51 48 52 53 51 55 64 67 71 73 73 76 79 89 93 72 94 84 95 96 99 99 91 89 99 99 100 100 100

GFSSGP_850_rhum_066.txt.gz
RH
15 16 20 26 31 35 35 24 20 18 29 34 40 32 60 87 78 89 72 82 80 77 85 82 78 75 66 55 57 54 57 54 36 16 14 13 14 15 35 47 43 30 26 30 32 49 61 70 82
17 23 33 33 37 36 32 22 20 17 20 33 38 44 70 92 86 77 86 78 81 65 72 85 86 74 68 86 63 58 60 53 23 12 13 15 18 23 41 41 34 27 26 25 32 54 63 67 71
22 31 35 38 38 37 31 20 17 45 36 42 43 62 76 82 83 77 58 70 80 61 59 60 70 70 53 55 83 62 62 42 20 18 22 37 26 36 39 36 26 25 26 27 39 64 72 71 70
20 25 27 27 29 26 24 19 17 48 46 43 53 73 62 89 98 84 78 96 84 68 72 66 48 69 64 65 68 71 66 32 16 30 62 44 37 38 38 26 26 29 31 32 40 65 66 66 66
28 30 30 29 28 22 17 15 39 50 61 58 52 70 65 56 58 83 81 83 92 76 55 66 72 79 90 88 98 86 68 24 17 75 83 52 42 38 28 29 31 32 31 26 44 61 60 60 63
29 26 34 37 28 20 15 23 46 51 54 55 63 70 52 43 58 68 72 81 85 81 82 96 99 86 98 99 88 81 81 53 41 75 81 54 45 34 30 32 34 31 24 22 30 56 56 64 66
32 29 30 27 23 17 15 32 46 52 62 59 48 58 42 40 46 85 97 76 89 92 79 78 91 79 94 77 99 78 47 20 53 77 77 65 45 35 35 37 34 29 23 20 20 53 54 59 58
20 25 25 24 20 19 14 27 46 54 68 58 58 66 66 64 49 66 100 98 100 87 82 81 98 85 74 80 92 96 72 47 64 77 80 76 45 40 40 40 36 30 24 20 18 39 51 54 54
19 27 30 23 17 16 16 24 66 64 65 73 76 88 85 72 60 57 97 100 100 100 98 92 87 78 77 70 88 72 87 66 72 73 79 76 46 42 44 43 44 40 26 24 23 27 46 52 50
19 27 24 17 15 14 52 38 61 55 53 57 69 70 88 83 59 75 88 98 99 98 100 92 78 80 83 84 96 86 81 78 67 66 64 68 45 44 46 50 53 50 40 27 24 25 32 44 45
19 24 18 16 14 18 48 55 59 55 63 60 55 80 88 94 83 80 94 97 98 100 98 95 87 83 80 87 93 91 71 65 54 61 68 65 46 47 50 54 53 56 52 48 39 35 35 36 34
19 17 16 14 16 24 44 51 53 58 46 48 60 70 90 96 89 83 82 94 100 100 93 99 89 88 90 94 86 71 63 75 70 65 67 57 45 49 51 53 56 55 55 54 56 51 46 40 38
19 18 16 16 17 30 48 60 53 59 56 86 85 85 84 84 85 81 88 93 97 99 100 100 99 97 88 86 79 65 93 74 75 71 58 50 44 49 44 48 52 54 57 58 60 65 63 51 39
19 22 20 18 19 25 37 55 43 49 67 87 90 85 78 79 84 83 94 93 98 100 98 100 100 100 91 79 69 64 79 66 65 63 49 43 45 40 48 43 45 55 58 59 62 67 67 58 48
20 25 23 19 20 24 35 53 50 41 59 82 79 90 86 91 90 81 98 90 97 100 100 100 99 100 94 89 79 61 64 63 64 58 53 46 46 46 43 44 47 59 63 58 65 69 69 67 67
25 26 28 22 24 24 26 38 54 46 69 71 72 82 76 90 83 84 99 93 98 100 100 100 100 100 88 82 85 90 77 67 68 61 62 66 59 57 49 47 64 63 60 65 73 70 71 72 71
32 36 31 27 27 27 33 41 58 51 55 65 73 81 79 86 86 81 89 97 98 100 100 100 100 100 79 82 99 95 91 78 64 56 54 48 45 55 52 65 63 60 60 72 78 72 73 74 72
37 35 28 27 28 35 40 46 61 57 55 48 52 73 87 78 75 76 75 88 98 97 100 100 100 96 88 72 74 87 91 68 62 54 47 46 53 52 58 57 50 48 74 80 82 76 75 76 74
29 32 33 27 30 36 41 48 56 60 62 59 48 62 89 78 74 78 76 78 93 98 98 98 99 88 83 74 79 80 71 69 59 52 48 71 65 55 48 41 46 62 64 65 75 79 76 77 76
30 30 30 24 24 34 31 33 39 61 62 63 61 69 83 80 79 77 79 77 75 90 99 92 87 83 78 69 71 74 68 64 57 53 65 73 75 75 53 45 52 46 53 78 81 80 80 81 81
29 30 30 26 22 26 28 32 52 54 57 58 58 60 76 72 70 74 74 71 73 77 84 89 87 82 77 71 71 76 71 73 57 59 64 65 58 62 63 60 61 54 67 76 73 78 79 85 88
35 25 25 27 31 39 26 42 39 54 53 52 52 64 71 72 70 70 68 59 66 63 72 77 81 82 78 73 84 81 73 70 65 54 57 51 45 51 56 59 58 58 66 66 67 73 82 92 94
30 26 26 26 31 32 32 38 35 39 46 50 51 57 67 69 67 71 64 52 40 58 63 70 77 77 74 75 62 62 62 56 53 52 51 41 47 61 62 65 62 57 63 70 73 75 86 92 94
23 24 28 33 38 51 37 40 39 34 30 34 45 49 61 69 71 67 66 59 42 45 52 58 63 64 62 59 62 64 64 65 59 50 47 43 40 51 56 61 65 63 72 72 71 81 85 93 92
27 32 50 59 57 59 35 47 46 30 26 30 47 50 52 66 71 70 71 64 58 44 45 48 51 52 55 61 65 61 62 62 59 54 52 52 58 64 63 67 72 77 81 79 81 91 95 90 96
32 35 60 56 71 57 47 55 41 27 27 25 43 47 52 68 68 66 64 60 60 55 49 48 46 44 47 54 61 64 66 74 76 71 65 66 65 63 60 63 72 77 84 86 90 99 94 93 100
31 41 32 50 59 71 56 44 32 30 25 24 35 45 51 60 65 63 66 62 59 60 55 56 52 46 44 47 51 63 67 78 81 80 76 69 70 68 67 67 73 78 83 93 94 97 94 99 100
25 28 43 57 63 70 58 52 50 31 23 20 24 42 47 52 49 54 64 63 62 59 57 61 60 59 53 49 48 63 66 69 70 72 74 78 75 74 82 75 88 80 79 92 88 91 96 100 100
31 34 33 44 61 73 73 57 44 38 24 27 23 25 23 35 42 46 60 58 61 61 72 61 64 66 65 63 59 62 68 70 75 80 82 95 98 82 67 75 70 80 89 92 88 99 92 100 100
23 30 36 52 56 65 72 52 31 39 34 25 22 23 24 24 26 32 43 48 60 63 68 69 68 76 84 85 84 82 81 84 80 81 86 86 69 85 92 82 78 100 99 95 99 92 94 99 99

GFSSGP_850_rhum_069.txt.gz
RH
16 17 21 30 27 39 38 29 24 22 18 41 43 43 71 83 70 68 68 87 83 84 85 72 55 40 39 46 52 53 51 51 45 31 23 30 29 21 17 34 48 41 26 22 32 37 46 57 60
20 25 34 29 38 36 28 24 20 20 29 40 45 64 78 82 76 69 66 82 82 97 78 74 65 56 45 45 47 62 58 53 38 22 28 34 31 37 45 41 30 24 26 32 35 44 60 64 63
24 28 29 40 42 35 32 22 18 41 42 46 48 69 72 81 79 66 54 63 92 82 85 76 77 75 60 56 41 57 77 52 29 25 39 39 42 46 39 30 27 29 34 44 40 53 60 66 70
24 23 24 31 31 29 26 20 18 29 36 44 53 69 59 77 82 81 74 60 76 92 89 97 90 91 85 75 62 50 72 65 26 26 34 41 50 41 32 26 23 24 36 50 51 56 62 64 66
28 28 32 31 29 23 21 18 20 50 50 44 58 56 65 61 71 81 84 85 83 89 81 79 96 99 100 100 98 76 80 73 22 27 41 58 44 35 27 25 25 29 47 55 56 60 62 66 65
29 25 38 37 29 23 19 23 46 53 55 54 58 64 60 47 51 63 66 83 99 89 96 89 98 97 85 76 72 98 80 84 56 49 54 53 40 30 28 29 31 33 51 62 58 59 61 64 59
31 36 34 29 27 23 15 39 47 53 58 53 60 58 52 55 54 68 76 91 96 99 100 91 98 85 81 87 63 99 98 77 81 52 49 48 35 31 32 33 29 33 57 61 57 58 64 61 59
23 30 27 28 26 21 18 44 44 52 50 51 56 65 60 70 68 99 84 94 100 100 99 100 88 70 67 81 77 99 100 94 89 51 50 47 36 36 35 30 24 24 50 57 55 53 56 59 60
20 30 35 27 21 17 21 38 52 61 64 62 68 70 70 80 89 100 97 100 100 100 100 99 98 90 87 86 68 91 97 98 90 70 55 43 42 40 34 26 23 19 25 53 52 49 45 38 50
23 32 26 21 17 17 27 47 51 58 57 61 56 55 71 97 100 100 100 99 100 100 98 97 96 92 86 72 70 81 74 87 79 75 63 42 43 39 33 29 23 20 19 41 51 50 50 45 44
21 27 22 18 16 17 36 55 59 58 53 45 44 40 59 73 89 98 96 89 100 99 98 91 95 94 86 90 92 90 83 82 82 73 56 44 45 41 42 34 26 23 22 26 40 45 41 43 39
20 19 18 17 16 25 52 46 58 54 38 36 48 57 72 78 86 87 88 81 97 99 87 83 90 89 90 95 99 91 90 89 86 76 58 46 46 48 52 49 42 37 32 31 29 31 36 33 32
21 18 18 19 19 23 40 54 49 53 37 52 66 72 83 79 87 86 83 84 86 100 88 89 90 82 88 86 96 82 74 83 82 78 65 44 50 54 55 54 54 52 56 50 50 43 38 35 34
18 22 22 20 19 36 49 54 54 34 42 67 81 84 75 81 83 83 81 85 88 89 92 97 100 98 92 90 89 82 75 73 78 82 65 53 53 53 54 56 54 58 57 57 61 61 59 42 38
21 25 25 23 20 26 39 53 66 37 47 70 91 87 87 85 83 88 84 88 89 85 92 98 100 100 95 93 83 78 67 58 68 76 69 49 50 50 54 54 57 57 55 61 59 62 67 54 49
24 27 31 22 22 22 29 34 37 43 55 74 94 94 99 86 83 82 73 93 87 92 100 100 100 100 95 89 75 94 95 91 85 72 53 49 46 45 48 52 59 43 51 60 61 64 69 68 67
34 33 31 27 23 30 33 36 38 48 70 81 80 87 96 95 92 80 77 98 87 93 100 100 100 100 98 93 99 99 95 81 67 62 56 52 47 46 45 49 48 41 54 65 65 63 68 72 68
38 38 32 31 25 35 43 46 44 54 60 67 76 86 83 80 84 78 69 83 98 92 100 100 100 100 100 97 86 92 88 85 77 65 57 54 52 51 50 55 58 60 61 62 65 69 71 74 75
30 32 36 31 26 33 44 43 41 53 65 64 64 75 75 72 83 83 70 71 98 95 98 100 100 99 100 95 94 99 87 82 73 65 62 63 62 56 56 62 64 68 60 48 56 73 81 77 79
35 37 38 31 26 37 39 42 41 63 65 60 59 60 58 69 81 80 78 65 90 98 95 100 100 99 89 91 100 88 76 79 64 56 68 74 59 51 52 66 74 59 51 48 58 77 83 83 82
35 38 37 35 28 36 32 36 34 49 57 58 52 52 53 57 69 77 73 52 71 92 99 95 99 99 83 78 94 86 88 78 69 55 55 51 47 52 59 72 64 60 51 58 61 77 84 84 86
36 32 30 32 36 42 30 45 32 43 62 66 59 58 54 53 63 70 68 59 52 66 82 94 98 96 88 80 71 74 77 82 64 57 50 48 54 59 67 72 70 64 62 67 60 69 79 84 94
33 32 34 36 37 35 34 42 35 40 53 56 57 52 51 46 54 60 61 61 44 57 65 76 90 91 84 78 73 79 78 69 65 63 57 54 54 62 56 57 58 56 61 73 72 74 73 76 84
28 31 31 40 42 53 40 42 43 39 38 39 47 49 46 46 47 56 61 65 56 54 59 68 77 82 84 74 68 69 73 72 69 68 69 55 54 55 50 44 45 51 65 71 76 78 81 81 86
33 36 56 60 55 51 38 47 41 32 29 28 34 45 40 43 52 55 64 60 62 50 49 53 64 67 71 76 72 69 73 78 70 65 61 54 51 51 44 37 39 47 56 64 75 78 83 83 86
37 39 63 57 67 54 47 63 46 34 31 25 25 27 35 50 53 48 47 60 58 55 40 38 44 57 64 66 63 64 62 55 49 48 50 50 49 42 39 36 45 58 64 70 84 87 81 86 98
36 44 32 46 62 74 59 46 34 29 31 29 40 40 47 48 53 45 46 54 59 57 47 33 34 38 46 45 53 58 57 57 61 61 57 54 53 61 66 65 66 68 70 78 81 83 85 100 100
31 32 46 59 65 72 58 56 52 36 31 24 35 56 49 47 51 54 52 53 58 58 57 47 38 36 40 44 47 53 57 61 60 61 67 72 80 83 84 85 86 85 82 80 91 93 88 94 100
36 35 38 46 64 67 75 62 46 41 38 27 26 38 49 49 46 50 52 52 57 64 63 60 50 44 42 51 53 59 63 65 66 65 69 79 84 84 93 95 84 92 91 84 85 94 94 87 86
28 34 39 58 52 70 72 51 34 39 38 35 29 22 26 41 39 42 42 50 63 62 63 61 62 56 52 48 47 46 47 49 54 62 68 74 77 83 70 83 80 100 97 97 93 100 98 99 96

GFSSGP_850_rhum_072.txt.gz
RH
15 17 22 29 22 37 34 27 27 22 18 34 48 48 52 73 60 58 72 84 92 99 97 79 64 46 52 49 46 49 52 45 53 71 67 62 57 49 44 64 79 76 72 57 34 30 28 25 26
18 28 31 26 32 30 25 25 22 21 18 45 60 62 69 68 71 75 80 84 98 99 98 80 64 58 57 51 46 53 49 46 61 56 49 53 53 46 44 71 70 58 44 42 76 43 48 41 38
20 28 29 38 44 32 31 23 21 21 32 48 49 65 65 64 73 76 85 99 100 100 99 84 63 69 72 63 59 55 47 46 44 35 31 37 38 40 65 58 42 30 29 87 65 57 58 57 50
24 25 23 35 31 29 27 23 21 22 31 46 53 58 59 69 68 74 72 78 99 99 99 99 92 81 84 87 92 82 76 52 42 29 19 19 26 51 50 39 30 28 31 43 51 60 60 50 24
29 26 34 32 30 26 24 20 34 43 46 47 58 49 59 55 54 47 66 60 57 96 99 99 73 92 80 86 90 82 92 67 58 37 42 15 44 44 74 76 44 32 40 49 56 61 59 51 32
28 26 39 34 29 24 22 18 46 52 53 55 52 58 52 52 50 51 60 62 68 66 92 96 92 94 98 94 87 88 98 89 64 49 31 28 44 42 78 86 41 32 43 48 56 64 62 58 32
31 36 34 30 29 24 17 40 46 48 51 49 51 61 50 53 59 66 67 62 60 62 75 87 85 82 79 79 72 66 89 95 84 44 50 50 40 43 55 41 46 46 50 56 61 62 60 57 48
23 32 30 31 28 22 18 40 40 47 43 52 57 61 60 57 70 88 98 88 83 68 73 94 88 78 78 72 74 60 66 99 82 54 65 47 36 35 36 42 51 51 49 53 56 60 58 58 50
21 34 38 29 24 18 22 35 46 52 54 58 60 67 76 79 83 98 99 99 100 100 98 99 97 85 85 67 67 66 74 99 86 79 59 45 35 37 42 48 56 54 53 55 57 59 60 55 48
26 36 29 24 20 19 18 33 38 57 63 55 49 60 65 88 98 99 98 99 100 99 99 99 100 92 87 86 71 91 99 99 91 81 62 42 37 42 34 46 56 55 54 52 52 51 50 47 41
24 29 24 20 17 18 20 50 47 62 55 44 41 48 67 99 98 99 98 91 96 98 98 93 88 95 97 89 78 96 98 99 100 86 58 37 43 36 28 26 34 51 52 51 50 50 47 43 36
22 21 20 17 18 22 36 41 57 61 43 38 42 47 62 99 99 97 99 97 88 88 88 84 83 99 98 83 71 81 100 97 89 82 53 43 40 30 25 21 21 30 44 44 36 39 39 38 36
22 20 19 19 19 21 27 44 53 50 41 43 46 51 68 98 100 100 98 98 100 96 92 90 86 86 83 84 85 92 100 91 85 80 52 43 35 32 26 27 30 27 33 31 36 30 31 32 32
18 20 23 20 18 22 50 49 53 38 39 44 54 62 76 99 99 95 93 91 99 89 90 90 100 94 92 94 96 99 100 92 83 76 52 50 50 43 32 33 32 36 34 33 36 33 35 36 34
22 27 26 23 21 26 45 44 66 38 44 54 64 68 83 92 96 85 86 87 90 84 88 97 100 99 98 99 99 92 98 93 87 76 50 49 52 59 58 56 54 58 60 63 54 58 51 38 36
25 26 30 20 25 26 34 38 30 29 49 69 64 70 85 88 90 89 90 83 85 88 99 98 100 99 100 98 86 93 96 100 92 81 60 56 66 55 65 60 61 61 65 63 58 63 63 54 52
35 31 32 28 24 34 36 41 31 44 57 61 65 75 83 93 99 100 89 79 84 90 99 100 100 100 100 96 84 83 89 91 89 77 69 68 56 64 66 63 59 61 62 62 57 66 69 69 68
37 40 38 35 26 30 38 48 35 40 59 66 70 79 83 96 85 97 89 81 86 89 99 99 99 100 99 100 98 97 87 84 94 82 72 63 64 66 66 59 60 61 66 63 61 69 69 72 73
32 34 36 34 28 27 31 39 35 40 65 68 65 75 78 77 80 90 85 91 91 88 89 99 99 100 100 100 91 97 96 92 91 94 70 64 66 61 57 55 54 66 60 62 68 75 75 73 74
33 35 38 34 28 32 33 39 34 49 58 56 59 59 62 80 87 89 79 79 97 91 88 99 98 100 100 100 100 100 100 100 98 89 78 64 67 65 62 56 50 59 64 65 77 77 74 81 81
39 36 38 36 33 32 38 43 35 32 53 54 54 48 52 59 75 83 79 77 75 92 96 96 98 99 100 99 100 96 89 96 84 78 70 67 66 65 64 59 52 62 67 68 70 68 73 76 83
38 34 33 35 38 48 36 56 35 28 40 60 59 52 49 49 60 70 74 73 58 67 84 94 98 99 98 89 94 92 91 90 79 76 74 67 73 67 63 57 57 47 64 79 78 65 58 68 81
31 34 37 36 43 41 38 48 40 35 36 33 48 49 44 43 49 60 66 64 60 55 60 74 85 88 95 81 93 99 91 73 73 70 66 65 73 72 68 59 49 44 58 77 82 79 74 74 78
31 34 36 43 50 64 47 46 48 38 34 30 36 32 32 37 41 55 62 64 65 52 55 59 72 87 88 80 78 96 84 71 73 67 62 59 56 56 52 47 50 50 53 49 66 66 69 77 80
34 42 59 63 66 65 42 50 37 32 29 31 32 25 24 32 38 43 54 58 64 61 47 52 57 70 83 79 75 70 77 79 77 65 61 58 54 53 52 51 52 51 48 46 50 56 70 78 86
44 46 68 60 69 52 50 58 45 37 32 30 28 24 24 29 36 39 40 46 49 60 51 42 49 56 64 69 68 66 68 71 73 71 64 61 63 64 56 54 53 53 50 46 48 53 70 86 90
40 50 38 47 61 74 56 46 34 31 31 30 32 30 28 31 32 34 40 41 44 49 60 44 39 50 60 69 69 68 64 66 71 70 67 65 65 66 61 54 53 53 51 46 63 78 88 82 77
34 37 49 63 61 69 58 56 46 35 32 36 29 45 34 35 40 35 40 40 40 44 55 61 44 36 46 58 69 71 71 68 69 70 70 63 56 58 56 52 52 56 71 78 82 88 90 82 86
39 40 40 49 63 60 62 59 49 36 34 35 31 23 35 40 32 25 29 42 50 47 48 59 62 49 41 45 50 58 59 63 62 58 57 57 58 56 58 61 77 88 86 85 75 82 94 96 98
32 38 40 53 52 74 66 46 33 38 38 39 33 28 22 24 32 34 38 44 53 50 53 55 62 62 54 38 35 35 35 39 36 36 42 46 51 61 68 77 83 85 86 99 73 77 99 97 100

GFSSGP_850_rhum_075.txt.gz
RH
15 17 21 28 17 20 18 16 22 18 17 25 40 48 40 52 45 46 83 92 95 87 84 67 57 59 64 60 56 50 56 57 60 65 63 51 48 48 47 51 66 84 85 81 78 71 70 52 57
18 31 30 24 16 19 18 18 18 16 16 36 61 60 60 46 66 74 90 87 89 95 93 80 59 59 62 60 53 52 56 55 54 64 64 54 54 50 49 47 70 77 76 61 29 35 41 38 44
25 31 26 24 26 20 19 18 16 16 21 40 47 55 67 57 65 74 77 92 94 99 99 96 83 61 74 72 63 64 63 54 49 63 64 58 56 50 50 60 81 78 69 43 65 62 37 34 34
29 24 24 24 23 22 20 17 18 20 29 46 55 44 54 54 59 68 67 83 90 85 98 96 91 90 81 65 68 78 64 72 67 66 61 54 50 47 46 62 74 67 56 94 95 48 52 47 34
28 24 24 25 24 22 20 20 22 32 41 49 58 44 55 42 53 52 68 68 70 97 93 97 81 64 61 61 59 59 77 81 80 68 60 47 46 29 34 66 81 79 87 85 70 55 34 19 23
27 26 26 23 22 20 19 19 40 46 47 52 50 52 48 41 46 51 50 62 71 73 71 88 89 62 51 47 61 66 77 83 68 77 43 32 30 38 37 56 86 78 63 67 62 45 23 18 17
26 24 24 25 24 21 17 35 38 40 42 41 48 44 46 42 39 44 53 54 66 78 68 65 72 84 66 56 65 60 78 93 89 76 66 40 40 50 42 55 46 53 58 56 56 49 29 28 19
24 22 28 26 22 19 16 37 36 42 34 43 46 42 48 44 44 60 69 63 73 92 80 74 78 75 89 76 78 77 77 85 99 84 77 55 51 44 46 41 49 56 59 61 61 52 44 37 28
23 24 26 24 24 17 17 25 33 38 49 49 52 51 67 63 67 91 96 100 93 88 99 100 100 100 100 100 95 88 81 65 78 99 86 58 48 41 60 39 53 57 60 67 63 61 51 43 33
22 27 24 20 19 17 18 23 26 46 55 55 61 60 70 71 86 94 91 92 98 97 90 98 99 100 100 100 91 79 68 84 92 99 85 52 45 50 41 48 59 59 64 69 67 63 52 41 32
25 23 22 19 18 19 19 30 41 46 35 38 43 44 56 96 94 92 88 86 88 96 100 100 99 100 97 91 90 84 65 92 100 99 85 54 45 48 49 50 59 59 65 70 66 60 48 36 31
24 21 20 18 17 24 22 34 45 52 27 35 40 43 54 97 93 92 94 88 92 96 94 94 89 83 91 97 95 94 96 100 99 91 78 47 43 44 45 53 54 54 52 51 47 45 41 36 30
23 19 20 17 18 23 24 31 30 42 34 44 49 49 61 100 93 93 91 99 99 84 88 85 82 72 97 98 89 100 100 100 94 97 62 46 43 38 38 36 57 53 49 48 41 45 39 37 31
20 20 19 22 21 23 25 31 52 37 30 47 57 54 70 81 91 98 99 93 96 90 89 90 84 90 92 89 98 100 100 99 85 70 60 46 39 35 27 40 49 51 50 46 37 37 36 34 32
23 24 22 20 18 20 36 32 45 33 42 52 63 64 77 82 81 88 95 98 100 98 82 81 84 100 92 92 95 100 100 96 87 71 71 50 36 35 27 27 37 36 42 35 34 36 36 32 33
25 27 25 19 25 33 31 23 25 28 48 58 77 78 82 83 76 81 87 89 76 98 91 98 92 100 100 100 100 100 100 99 86 68 52 38 43 28 30 32 44 45 37 37 44 40 37 36 36
31 23 27 21 21 36 31 25 22 44 55 56 68 83 92 88 94 90 85 86 68 99 99 98 99 100 100 100 100 100 100 86 76 72 44 46 37 33 54 56 57 56 59 66 62 59 57 48 48
28 32 30 24 26 28 31 26 21 30 45 46 56 73 89 95 92 85 87 83 74 96 98 100 100 99 100 100 98 99 100 98 90 64 48 46 62 64 65 62 61 67 72 73 71 67 67 68 68
26 29 25 26 26 26 22 23 22 25 51 51 58 68 87 86 87 89 86 83 77 93 99 100 99 99 99 100 96 100 98 100 83 84 57 74 71 74 67 65 77 72 65 69 74 71 71 73 74
29 30 28 26 27 28 24 24 21 26 32 36 41 58 72 80 83 87 84 86 81 88 98 100 99 100 100 98 93 90 92 96 91 93 72 70 70 76 68 76 68 58 61 75 79 76 80 81 79
34 34 30 26 29 26 30 26 26 23 37 44 49 51 54 63 71 79 76 81 91 91 91 97 99 98 100 100 96 98 92 93 96 99 76 68 75 71 72 61 58 58 65 72 72 73 72 80 80
41 31 29 30 30 26 33 33 30 24 23 30 31 53 56 57 62 69 72 68 72 69 76 89 100 98 100 100 96 88 92 95 96 91 81 84 85 78 72 66 63 67 58 64 60 61 67 78 84
30 31 30 29 31 34 28 35 31 30 25 21 21 32 44 45 50 58 59 55 59 60 64 80 96 100 99 100 99 98 100 96 95 91 88 82 84 77 70 67 69 70 66 63 56 65 74 75 84
29 32 36 42 41 52 37 36 32 28 25 23 23 26 30 45 53 52 54 59 60 59 62 66 81 93 94 99 100 100 91 98 95 89 80 77 75 74 73 71 65 67 68 57 62 57 64 66 67
31 37 45 56 58 47 39 42 32 26 24 24 24 23 26 34 52 53 58 56 57 58 48 58 70 78 84 94 89 89 89 85 90 81 82 79 75 68 69 78 73 65 61 61 59 54 57 62 69
40 38 48 45 57 43 43 44 30 27 28 29 30 29 29 29 40 48 44 47 48 50 49 42 55 67 78 79 78 84 90 84 82 75 76 71 67 67 74 76 72 68 64 57 51 52 50 52 59
43 48 35 46 58 58 42 38 28 24 24 25 28 27 32 33 37 47 48 43 44 45 49 40 34 47 62 69 71 71 84 90 85 74 72 74 70 66 65 60 58 58 57 56 58 57 54 74 81
33 34 47 50 52 50 44 46 32 29 23 26 27 27 26 37 38 50 50 39 42 46 50 54 39 30 39 54 58 58 59 68 78 78 73 72 70 66 60 58 58 62 63 58 55 55 56 83 85
37 39 42 40 50 44 45 42 40 32 28 30 33 30 25 25 37 43 60 57 41 44 49 55 57 42 33 37 47 52 52 55 60 60 62 64 68 65 61 58 59 63 63 58 55 62 82 85 93
33 36 38 50 49 62 56 39 30 35 31 35 31 25 21 22 24 39 43 48 44 44 49 48 56 59 51 35 31 41 50 48 44 37 35 41 47 49 53 56 53 53 54 55 59 77 83 90 98